SV8FES Weather Reports


time (UTC)temp
F
wind
direction
speed
knots
gust
knots
rain 1hr
in
rain 24hr
in
rain mn
in
humidity
%
barometer
mb
20260507000604 62 72 1.7 2.6 0.00 0.00 0.00 65 1016.3
20260507000502 62 72 1.7 3.5 0.00 0.00 0.00 65 1016.4
20260507000402 62 73 1.7 3.5 0.00 0.00 0.00 65 1016.4
20260507000302 62 71 1.7 3.5 0.00 0.00 0.00 65 1016.3
20260507000205 62 71 1.7 3.5 0.00 0.00 0.00 64 1016.4
20260507000002 62 71 1.7 3.5 0.00 0.00 0.00 63 1016.4
20260506235904 62 71 1.7 3.5 0.00 0.00 0.00 63 1016.3
20260506235807 62 71 1.7 3.5 0.00 0.00 0.00 63 1016.3
20260506235702 62 72 1.7 3.5 0.00 0.00 0.00 63 1016.3
20260506235601 62 68 1.7 3.5 0.00 0.00 0.00 63 1016.3
20260506235504 62 66 2.6 3.5 0.00 0.00 0.00 62 1016.3
20260506235402 62 66 2.6 4.3 0.00 0.00 0.00 62 1016.3
20260506235306 62 66 2.6 4.3 0.00 0.00 0.00 62 1016.3
20260506235202 62 66 2.6 4.3 0.00 0.00 0.00 62 1016.3
20260506235102 62 66 2.6 4.3 0.00 0.00 0.00 62 1016.3
20260506235004 62 66 2.6 4.3 0.00 0.00 0.00 62 1016.3
20260506234902 62 66 2.6 4.3 0.00 0.00 0.00 62 1016.4
20260506234804 62 76 3.5 4.3 0.00 0.00 0.00 62 1016.4
20260506234703 62 74 3.5 4.3 0.00 0.00 0.00 62 1016.4
20260506234602 62 73 3.5 5.2 0.00 0.00 0.00 62 1016.4
20260506234504 62 73 3.5 6.1 0.00 0.00 0.00 62 1016.4
20260506234404 62 76 3.5 6.1 0.00 0.00 0.00 61 1016.4
20260506234304 62 72 3.5 6.1 0.00 0.00 0.00 61 1016.4
20260506234202 62 76 3.5 6.1 0.00 0.00 0.00 61 1016.4
20260506234104 62 74 3.5 6.1 0.00 0.00 0.00 61 1016.5
20260506234002 62 70 3.5 6.1 0.00 0.00 0.00 61 1016.5
20260506233901 62 76 4.3 6.1 0.00 0.00 0.00 61 1016.5
20260506233805 62 82 4.3 6.1 0.00 0.00 0.00 61 1016.5
20260506233702 62 81 4.3 6.1 0.00 0.00 0.00 60 1016.5
20260506233603 62 79 4.3 7.0 0.00 0.00 0.00 60 1016.6
20260506233504 62 73 4.3 7.0 0.00 0.00 0.00 60 1016.5
20260506233402 62 72 4.3 7.0 0.00 0.00 0.00 60 1016.6
20260506233303 62 74 4.3 7.0 0.00 0.00 0.00 60 1016.5
20260506233204 62 71 5.2 7.0 0.00 0.00 0.00 59 1016.6
20260506233103 62 71 5.2 7.0 0.00 0.00 0.00 59 1016.5
20260506233002 62 72 5.2 7.0 0.00 0.00 0.00 59 1016.6
20260506232902 62 75 5.2 7.0 0.00 0.00 0.00 59 1016.6
20260506232804 62 71 5.2 7.0 0.00 0.00 0.00 58 1016.6
20260506232702 62 74 5.2 7.0 0.00 0.00 0.00 58 1016.6
20260506232602 62 74 5.2 7.0 0.00 0.00 0.00 58 1016.6
20260506232506 62 72 5.2 7.0 0.00 0.00 0.00 58 1016.6
20260506232402 62 81 5.2 7.0 0.00 0.00 0.00 58 1016.6
20260506232306 62 68 4.3 7.0 0.00 0.00 0.00 58 1016.7
20260506232204 62 67 4.3 7.0 0.00 0.00 0.00 58 1016.7
20260506232102 62 71 4.3 7.0 0.00 0.00 0.00 58 1016.7
20260506232004 62 72 4.3 7.0 0.00 0.00 0.00 59 1016.7
20260506231902 62 76 3.5 7.0 0.00 0.00 0.00 59 1016.7
20260506231805 62 74 3.5 7.0 0.00 0.00 0.00 59 1016.7
20260506231704 62 84 2.6 7.0 0.00 0.00 0.00 59 1016.7
20260506231602 62 72 2.6 5.2 0.00 0.00 0.00 59 1016.7
20260506231503 62 74 2.6 5.2 0.00 0.00 0.00 60 1016.7
20260506231404 62 70 2.6 6.1 0.00 0.00 0.00 61 1016.8
20260506231303 62 70 3.5 7.0 0.00 0.00 0.00 61 1016.8
20260506231202 62 72 3.5 7.0 0.00 0.00 0.00 61 1016.8
20260506231103 62 76 3.5 7.0 0.00 0.00 0.00 61 1016.8
20260506231004 62 66 3.5 7.0 0.00 0.00 0.00 61 1016.8
20260506230905 62 64 4.3 7.0 0.00 0.00 0.00 61 1016.8
20260506230804 62 68 4.3 7.0 0.00 0.00 0.00 61 1016.9
20260506230702 62 72 4.3 7.0 0.00 0.00 0.00 61 1016.9
20260506230604 62 71 4.3 7.0 0.00 0.00 0.00 61 1016.9
20260506230502 62 73 4.3 7.0 0.00 0.00 0.00 61 1016.9
20260506230402 62 72 4.3 7.0 0.00 0.00 0.00 62 1016.9
20260506230302 62 72 3.5 7.0 0.00 0.00 0.00 63 1016.9
20260506230203 62 89 3.5 6.1 0.00 0.00 0.00 63 1017.0
20260506230105 62 76 3.5 6.1 0.00 0.00 0.00 64 1017.0
20260506230003 62 76 2.6 6.1 0.00 0.00 0.00 64 1017.0
20260506225902 62 70 2.6 6.1 0.00 0.00 0.00 65 1017.0
20260506225805 62 75 2.6 6.1 0.00 0.00 0.00 65 1017.0
20260506225702 62 72 2.6 5.2 0.00 0.00 0.00 66 1017.0
20260506225602 62 81 1.7 5.2 0.00 0.00 0.00 67 1017.1
20260506225504 62 55 1.7 3.5 0.00 0.00 0.00 68 1017.0
20260506225403 63 68 1.7 3.5 0.00 0.00 0.00 68 1017.1
20260506225306 63 76 1.7 3.5 0.00 0.00 0.00 68 1017.0
20260506225201 63 78 1.7 3.5 0.00 0.00 0.00 69 1017.1
20260506225102 63 79 2.6 3.5 0.00 0.00 0.00 69 1017.1
20260506225004 63 79 2.6 4.3 0.00 0.00 0.00 69 1017.1
20260506224903 63 79 2.6 4.3 0.00 0.00 0.00 69 1017.1
20260506224805 63 79 2.6 4.3 0.00 0.00 0.00 69 1017.2
20260506224702 63 81 2.6 4.3 0.00 0.00 0.00 69 1017.1
20260506224604 63 79 2.6 4.3 0.00 0.00 0.00 69 1017.1
20260506224504 63 79 2.6 4.3 0.00 0.00 0.00 69 1017.1
20260506224403 63 79 2.6 4.3 0.00 0.00 0.00 69 1017.2
20260506224304 63 70 2.6 4.3 0.00 0.00 0.00 69 1017.2
20260506224204 63 70 2.6 4.3 0.00 0.00 0.00 68 1017.2
20260506224103 63 80 2.6 4.3 0.00 0.00 0.00 68 1017.2
20260506224005 63 75 1.7 4.3 0.00 0.00 0.00 68 1017.2
20260506223901 63 81 1.7 4.3 0.00 0.00 0.00 67 1017.3
20260506223800 63 77 1.7 4.3 0.00 0.00 0.00 67 1017.3
20260506223701 63 79 1.7 4.3 0.00 0.00 0.00 67 1017.4
20260506223600 63 78 1.7 4.3 0.00 0.00 0.00 67 1017.2
20260506223502 63 74 1.7 3.5 0.00 0.00 0.00 66 1017.2
20260506223400 63 80 1.7 3.5 0.00 0.00 0.00 66 1017.3
20260506223302 63 79 1.7 3.5 0.00 0.00 0.00 66 1017.3
20260506223200 63 79 1.7 3.5 0.00 0.00 0.00 65 1017.3
20260506223102 63 79 1.7 3.5 0.00 0.00 0.00 65 1017.4
20260506222959 63 79 1.7 4.3 0.00 0.00 0.00 65 1017.4
20260506222901 63 78 1.7 4.3 0.00 0.00 0.00 65 1017.2
20260506222800 63 78 1.7 4.3 0.00 0.00 0.00 64 1017.3
20260506222700 63 75 1.7 4.3 0.00 0.00 0.00 64 1017.3
20260506222600 63 75 1.7 4.3 0.00 0.00 0.00 64 1017.3
20260506222501 63 76 1.7 4.3 0.00 0.00 0.00 63 1017.3
20260506222359 63 74 1.7 4.3 0.00 0.00 0.00 62 1017.3
20260506222306 63 72 0.9 4.3 0.00 0.00 0.00 62 1017.3
20260506222200 63 76 0.9 4.3 0.00 0.00 0.00 61 1017.3
20260506222102 63 76 0.9 4.3 0.00 0.00 0.00 61 1017.2
20260506221956 63 81 0.9 3.5 0.00 0.00 0.00 60 1017.2
20260506221858 63 80 0.9 2.6 0.00 0.00 0.00 60 1017.3
20260506221756 63 81 0.9 1.7 0.00 0.00 0.00 60 1017.3
20260506221658 63 80 0.9 1.7 0.00 0.00 0.00 59 1017.3
20260506221558 63 80 0.9 2.6 0.00 0.00 0.00 59 1017.3
20260506221457 63 80 0.9 2.6 0.00 0.00 0.00 59 1017.3
20260506221357 63 80 0.9 2.6 0.00 0.00 0.00 58 1017.3
20260506221300 63 80 0.9 2.6 0.00 0.00 0.00 58 1017.3
20260506221156 63 80 1.7 3.5 0.00 0.00 0.00 58 1017.3
20260506221058 63 80 1.7 4.3 0.00 0.00 0.00 58 1017.2
20260506220957 63 80 1.7 4.3 0.00 0.00 0.00 58 1017.3
20260506220857 63 80 1.7 4.3 0.00 0.00 0.00 58 1017.3
20260506220800 63 80 1.7 4.3 0.00 0.00 0.00 58 1017.2
20260506220656 63 80 1.7 4.3 0.00 0.00 0.00 58 1017.3
20260506220557 63 79 2.6 4.3 0.00 0.00 0.00 58 1017.3
20260506220455 63 79 2.6 4.3 0.00 0.00 0.00 58 1017.2
20260506220357 63 79 2.6 4.3 0.00 0.00 0.00 58 1017.2
20260506220300 63 80 2.6 4.3 0.00 0.00 0.00 58 1017.2
20260506220157 63 80 2.6 4.3 0.00 0.00 0.00 58 1017.2
20260506220054 63 82 2.6 4.3 0.00 0.00 0.00 58 1017.2
20260506215953 63 79 2.6 4.3 0.00 0.00 0.00 58 1017.2
20260506215852 63 79 3.5 4.3 0.00 0.00 0.00 58 1017.2
20260506215755 63 81 3.5 4.3 0.00 0.00 0.00 58 1017.1
20260506215652 63 78 3.5 4.3 0.00 0.00 0.00 58 1017.1
20260506215552 63 79 2.6 4.3 0.00 0.00 0.00 58 1017.1
20260506215452 63 72 2.6 4.3 0.00 0.00 0.00 58 1017.1
20260506215354 63 88 3.5 4.3 0.00 0.00 0.00 58 1017.2
20260506215256 63 75 2.6 6.1 0.00 0.00 0.00 58 1017.2
20260506215208 63 76 2.6 6.1 0.00 0.00 0.00 58 1017.2
20260506215053 64 76 2.6 6.1 0.00 0.00 0.00 58 1017.2
20260506214951 64 76 2.6 6.1 0.00 0.00 0.00 58 1017.2
20260506214852 64 79 2.6 6.1 0.00 0.00 0.00 58 1017.2
20260506214752 64 72 2.6 6.1 0.00 0.00 0.00 58 1017.2
20260506214652 64 74 2.6 6.1 0.00 0.00 0.00 58 1017.2
20260506214552 64 79 2.6 6.1 0.00 0.00 0.00 58 1017.2
20260506214446 64 76 2.6 6.1 0.00 0.00 0.00 58 1017.2
20260506214345 64 77 2.6 6.1 0.00 0.00 0.00 58 1017.2
20260506214248 64 70 2.6 4.3 0.00 0.00 0.00 58 1017.2
20260506214143 64 79 2.6 4.3 0.00 0.00 0.00 58 1017.3
20260506213940 64 76 1.7 4.3 0.00 0.00 0.00 58 1017.2
20260506213840 64 74 1.7 4.3 0.00 0.00 0.00 58 1017.2
20260506213744 64 75 2.6 4.3 0.00 0.00 0.00 58 1017.2
20260506213638 64 74 2.6 4.3 0.00 0.00 0.00 58 1017.3
20260506213537 64 72 1.7 4.3 0.00 0.00 0.00 58 1017.2
20260506213432 64 76 1.7 3.5 0.00 0.00 0.00 58 1017.2
20260506213331 64 79 1.7 3.5 0.00 0.00 0.00 58 1017.3
20260506213232 64 84 1.7 3.5 0.00 0.00 0.00 59 1017.2
20260506213131 64 79 1.7 4.3 0.00 0.00 0.00 59 1017.3
20260506213032 64 76 1.7 4.3 0.00 0.00 0.00 59 1017.3
20260506212936 64 78 1.7 4.3 0.00 0.00 0.00 59 1017.3
20260506212831 64 76 1.7 4.3 0.00 0.00 0.00 59 1017.3
20260506212732 64 76 1.7 4.3 0.00 0.00 0.00 59 1017.3
20260506212631 64 76 1.7 4.3 0.00 0.00 0.00 59 1017.4
20260506212532 64 76 1.7 4.3 0.00 0.00 0.00 59 1017.3
20260506212433 64 75 1.7 4.3 0.00 0.00 0.00 59 1017.4
20260506212331 64 77 1.7 4.3 0.00 0.00 0.00 59 1017.4
20260506212237 64 74 1.7 4.3 0.00 0.00 0.00 59 1017.4
20260506212131 64 79 1.7 3.5 0.00 0.00 0.00 59 1017.4
20260506212031 64 77 1.7 3.5 0.00 0.00 0.00 60 1017.4
20260506211934 64 79 1.7 4.3 0.00 0.00 0.00 60 1017.4
20260506211830 64 80 2.6 4.3 0.00 0.00 0.00 60 1017.4
20260506211736 64 81 2.6 5.2 0.00 0.00 0.00 60 1017.4
20260506211632 64 74 2.6 6.1 0.00 0.00 0.00 60 1017.4
20260506211530 64 82 2.6 6.1 0.00 0.00 0.00 60 1017.4
20260506211434 64 81 2.6 6.1 0.00 0.00 0.00 60 1017.4
20260506211332 64 84 3.5 6.1 0.00 0.00 0.00 60 1017.4
20260506211231 64 99 3.5 6.1 0.00 0.00 0.00 60 1017.4
20260506211132 64 83 3.5 6.1 0.00 0.00 0.00 61 1017.4
20260506211031 64 85 3.5 6.1 0.00 0.00 0.00 61 1017.4
20260506210936 64 79 3.5 6.1 0.00 0.00 0.00 61 1017.3
20260506210831 64 79 3.5 6.1 0.00 0.00 0.00 61 1017.3
20260506210732 64 83 3.5 6.1 0.00 0.00 0.00 61 1017.4
20260506210632 64 81 2.6 4.3 0.00 0.00 0.00 61 1017.4
20260506210531 64 81 2.6 4.3 0.00 0.00 0.00 61 1017.4
20260506210433 64 79 2.6 4.3 0.00 0.00 0.00 61 1017.3
20260506210332 64 80 2.6 4.3 0.00 0.00 0.00 61 1017.4
20260506210230 64 75 2.6 4.3 0.00 0.00 0.00 61 1017.3
20260506210132 64 83 2.6 4.3 0.00 0.00 0.00 61 1017.3
20260506210030 64 71 2.6 4.3 0.00 0.00 0.00 61 1017.4
20260506205933 64 78 2.6 4.3 0.00 0.00 0.00 61 1017.3
20260506205831 64 76 2.6 4.3 0.00 0.00 0.00 61 1017.4
20260506205730 64 76 2.6 4.3 0.00 0.00 0.00 61 1017.4
20260506205630 64 73 2.6 4.3 0.00 0.00 0.00 61 1017.4
20260506205531 64 67 2.6 4.3 0.00 0.00 0.00 61 1017.4
20260506205431 64 76 2.6 4.3 0.00 0.00 0.00 61 1017.4
20260506205330 64 77 2.6 4.3 0.00 0.00 0.00 61 1017.4
20260506205232 64 81 2.6 4.3 0.00 0.00 0.00 60 1017.4
20260506205131 64 76 2.6 4.3 0.00 0.00 0.00 60 1017.4
20260506205032 64 77 2.6 4.3 0.00 0.00 0.00 60 1017.4
20260506204934 64 75 2.6 4.3 0.00 0.00 0.00 60 1017.4
20260506204832 64 78 2.6 4.3 0.00 0.00 0.00 60 1017.4
20260506204733 64 79 2.6 4.3 0.00 0.00 0.00 60 1017.4
20260506204630 64 74 2.6 4.3 0.00 0.00 0.00 60 1017.4
20260506204531 64 72 2.6 4.3 0.00 0.00 0.00 60 1017.4
20260506204433 64 72 2.6 4.3 0.00 0.00 0.00 60 1017.4
20260506204332 64 78 2.6 4.3 0.00 0.00 0.00 60 1017.4
20260506204231 64 80 2.6 4.3 0.00 0.00 0.00 59 1017.4
20260506204130 64 78 2.6 4.3 0.00 0.00 0.00 59 1017.4
20260506204032 64 75 2.6 4.3 0.00 0.00 0.00 59 1017.4
20260506203932 64 79 2.6 4.3 0.00 0.00 0.00 59 1017.3
20260506203834 64 80 2.6 4.3 0.00 0.00 0.00 59 1017.4
20260506203731 64 84 2.6 4.3 0.00 0.00 0.00 59 1017.4
20260506203630 64 65 2.6 6.1 0.00 0.00 0.00 59 1017.4
20260506203532 64 78 2.6 7.0 0.00 0.00 0.00 59 1017.4
20260506203432 64 78 2.6 7.0 0.00 0.00 0.00 59 1017.4
20260506203331 64 75 3.5 7.0 0.00 0.00 0.00 59 1017.4
20260506203233 64 72 3.5 7.0 0.00 0.00 0.00 59 1017.4
20260506203130 64 66 3.5 7.8 0.00 0.00 0.00 59 1017.4
20260506203030 64 81 4.3 7.8 0.00 0.00 0.00 59 1017.4
20260506202932 64 79 4.3 7.8 0.00 0.00 0.00 59 1017.4
20260506202833 64 79 4.3 7.8 0.00 0.00 0.00 59 1017.3
20260506202731 64 72 4.3 7.8 0.00 0.00 0.00 59 1017.2
20260506202631 64 79 4.3 7.8 0.00 0.00 0.00 59 1017.3
20260506202530 64 79 4.3 7.8 0.00 0.00 0.00 58 1017.3
20260506202432 64 84 4.3 7.8 0.00 0.00 0.00 58 1017.3
20260506202330 64 63 4.3 7.8 0.00 0.00 0.00 58 1017.3
20260506202232 64 78 4.3 7.8 0.00 0.00 0.00 57 1017.3
20260506202130 64 83 4.3 7.0 0.00 0.00 0.00 57 1017.4
20260506202031 64 81 4.3 7.8 0.00 0.00 0.00 57 1017.3
20260506201948 64 101 4.3 7.8 0.00 0.00 0.00 56 1017.4
20260506201831 64 94 4.3 7.8 0.00 0.00 0.00 56 1017.3
20260506201730 64 78 4.3 7.8 0.00 0.00 0.00 56 1017.3
20260506201630 64 89 4.3 7.8 0.00 0.00 0.00 56 1017.4
20260506201530 64 71 3.5 7.8 0.00 0.00 0.00 55 1017.3
20260506201432 64 85 3.5 7.8 0.00 0.00 0.00 55 1017.3
20260506201331 64 92 3.5 7.8 0.00 0.00 0.00 55 1017.3
20260506201230 64 85 3.5 7.8 0.00 0.00 0.00 55 1017.3
20260506201131 64 92 3.5 7.8 0.00 0.00 0.00 54 1017.3
20260506201030 64 83 3.5 7.0 0.00 0.00 0.00 54 1017.2
20260506200930 64 81 2.6 7.0 0.00 0.00 0.00 55 1017.3
20260506200824 64 76 2.6 6.1 0.00 0.00 0.00 55 1017.3
20260506200723 64 72 2.6 6.1 0.00 0.00 0.00 55 1017.2
20260506200623 64 72 3.5 6.1 0.00 0.00 0.00 55 1017.3
20260506200524 64 76 3.5 6.1 0.00 0.00 0.00 55 1017.3
20260506200424 64 81 2.6 6.1 0.00 0.00 0.00 55 1017.3
20260506200316 64 71 2.6 6.1 0.00 0.00 0.00 55 1017.3
20260506200217 64 82 2.6 6.1 0.00 0.00 0.00 55 1017.3
20260506200116 64 74 2.6 6.1 0.00 0.00 0.00 55 1017.2
20260506200018 64 81 2.6 6.1 0.00 0.00 0.00 55 1017.2
20260506195918 64 62 2.6 6.1 0.00 0.00 0.00 55 1017.2
20260506195814 64 72 2.6 4.3 0.00 0.00 0.00 55 1017.2
20260506195713 64 72 2.6 4.3 0.00 0.00 0.00 54 1017.2
20260506195612 64 77 2.6 4.3 0.00 0.00 0.00 54 1017.2
20260506195514 64 77 2.6 4.3 0.00 0.00 0.00 54 1017.2
20260506195412 64 72 2.6 4.3 0.00 0.00 0.00 54 1017.1
20260506195312 64 75 1.7 4.3 0.00 0.00 0.00 54 1017.1
20260506195213 64 74 1.7 4.3 0.00 0.00 0.00 54 1017.1
20260506195112 64 71 1.7 3.5 0.00 0.00 0.00 54 1017.1
20260506195012 64 72 1.7 3.5 0.00 0.00 0.00 54 1017.1
20260506194912 64 70 1.7 3.5 0.00 0.00 0.00 54 1017.2
20260506194813 64 76 1.7 3.5 0.00 0.00 0.00 54 1017.2
20260506194713 64 85 1.7 3.5 0.00 0.00 0.00 54 1017.1
20260506194616 64 85 1.7 3.5 0.00 0.00 0.00 54 1017.2
20260506194526 64 85 0.9 3.5 0.00 0.00 0.00 54 1017.2
20260506194414 64 82 0.9 3.5 0.00 0.00 0.00 54 1017.2
20260506194313 64 82 0.9 3.5 0.00 0.00 0.00 54 1017.1
20260506194213 64 82 0.9 3.5 0.00 0.00 0.00 54 1017.2
20260506194112 64 81 0.9 3.5 0.00 0.00 0.00 54 1017.1
20260506194014 64 82 0.9 2.6 0.00 0.00 0.00 54 1017.2
20260506193913 64 83 0.9 2.6 0.00 0.00 0.00 54 1017.1
20260506193812 64 87 0.9 3.5 0.00 0.00 0.00 54 1017.1
20260506193714 64 95 0.9 4.3 0.00 0.00 0.00 54 1017.1
20260506193612 64 97 0.9 4.3 0.00 0.00 0.00 53 1017.1
20260506193508 64 97 1.7 4.3 0.00 0.00 0.00 53 1017.1
20260506193408 64 97 1.7 4.3 0.00 0.00 0.00 53 1017.1
20260506193310 64 97 1.7 4.3 0.00 0.00 0.00 52 1017.1
20260506193208 64 76 1.7 4.3 0.00 0.00 0.00 52 1017.0
20260506193109 64 76 1.7 4.3 0.00 0.00 0.00 51 1017.0
20260506193006 64 76 2.6 4.3 0.00 0.00 0.00 51 1017.1
20260506192907 65 76 2.6 4.3 0.00 0.00 0.00 51 1017.1
20260506192804 65 75 1.7 4.3 0.00 0.00 0.00 51 1017.1
20260506192702 65 72 1.7 3.5 0.00 0.00 0.00 51 1017.0
20260506192602 65 76 1.7 3.5 0.00 0.00 0.00 50 1017.0
20260506192501 65 75 1.7 3.5 0.00 0.00 0.00 51 1017.0
20260506192405 65 81 1.7 3.5 0.00 0.00 0.00 50 1017.0
20260506192305 65 68 1.7 3.5 0.00 0.00 0.00 50 1017.1
20260506192202 65 74 1.7 2.6 0.00 0.00 0.00 50 1017.0
20260506192102 65 74 1.7 2.6 0.00 0.00 0.00 50 1017.0
20260506192002 65 74 1.7 2.6 0.00 0.00 0.00 50 1016.9
20260506191902 65 75 1.7 2.6 0.00 0.00 0.00 49 1016.9
20260506191802 65 75 0.9 2.6 0.00 0.00 0.00 49 1017.1
20260506191702 65 75 0.9 2.6 0.00 0.00 0.00 49 1017.0
20260506191603 65 75 0.9 2.6 0.00 0.00 0.00 49 1016.9
20260506191503 65 75 0.9 2.6 0.00 0.00 0.00 49 1016.9
20260506191404 65 75 0.9 2.6 0.00 0.00 0.00 49 1016.9
20260506191303 66 75 0.9 2.6 0.00 0.00 0.00 49 1016.9
20260506191204 66 75 0.9 1.7 0.00 0.00 0.00 49 1016.8
20260506191102 66 75 0.9 2.6 0.00 0.00 0.00 48 1016.9
20260506191002 66 75 0.9 3.5 0.00 0.00 0.00 49 1016.8
20260506190902 66 75 0.9 3.5 0.00 0.00 0.00 49 1016.9
20260506190802 66 75 1.7 3.5 0.00 0.00 0.00 48 1016.8
20260506190702 66 75 1.7 3.5 0.00 0.00 0.00 48 1016.8
20260506190618 66 75 1.7 3.5 0.00 0.00 0.00 48 1016.7
20260506190502 66 75 1.7 3.5 0.00 0.00 0.00 48 1016.8
20260506190402 66 75 1.7 3.5 0.00 0.00 0.00 48 1016.7
20260506190303 66 75 1.7 3.5 0.00 0.00 0.00 48 1016.6
20260506190202 66 75 1.7 3.5 0.00 0.00 0.00 48 1016.6
20260506190104 66 75 1.7 3.5 0.00 0.00 0.00 48 1016.6
20260506190005 66 76 1.7 3.5 0.00 0.00 0.00 48 1016.7
20260506185903 66 75 1.7 3.5 0.00 0.00 0.00 48 1016.6
20260506185805 66 74 1.7 3.5 0.00 0.00 0.00 48 1016.6
20260506185703 66 74 1.7 3.5 0.00 0.00 0.00 48 1016.5
20260506185602 66 76 0.9 3.5 0.00 0.00 0.00 48 1016.6
20260506185502 66 86 0.9 2.6 0.00 0.00 0.00 47 1016.5
20260506185402 66 116 0.9 2.6 0.00 0.00 0.00 47 1016.5
20260506185306 66 116 0.9 2.6 0.00 0.00 0.00 47 1016.5
20260506185204 66 116 0.9 2.6 0.00 0.00 0.00 47 1016.5
20260506185103 66 116 0.9 4.3 0.00 0.00 0.00 47 1016.5
20260506185004 66 116 1.7 4.3 0.00 0.00 0.00 47 1016.5
20260506184903 66 66 1.7 4.3 0.00 0.00 0.00 47 1016.4
20260506184802 66 59 1.7 6.1 0.00 0.00 0.00 47 1016.5
20260506184702 66 58 2.6 6.1 0.00 0.00 0.00 48 1016.4
20260506184603 66 58 2.6 6.1 0.00 0.00 0.00 48 1016.5
20260506184504 66 58 2.6 6.1 0.00 0.00 0.00 48 1016.4
20260506184406 66 58 2.6 6.1 0.00 0.00 0.00 48 1016.4
20260506184302 66 69 3.5 6.1 0.00 0.00 0.00 48 1016.4
20260506184205 66 68 3.5 7.0 0.00 0.00 0.00 47 1016.4
20260506184102 66 93 3.5 7.0 0.00 0.00 0.00 47 1016.4
20260506184003 66 81 3.5 7.8 0.00 0.00 0.00 48 1016.3
20260506183903 66 83 3.5 7.8 0.00 0.00 0.00 48 1016.3
20260506183802 66 83 3.5 7.8 0.00 0.00 0.00 48 1016.3
20260506183704 66 83 3.5 7.8 0.00 0.00 0.00 48 1016.3
20260506183603 66 91 4.3 7.8 0.00 0.00 0.00 48 1016.2
20260506183505 66 93 4.3 7.8 0.00 0.00 0.00 48 1016.3
20260506183404 66 87 4.3 7.8 0.00 0.00 0.00 48 1016.2
20260506183302 66 95 3.5 7.8 0.00 0.00 0.00 48 1016.2
20260506183202 66 86 3.5 7.8 0.00 0.00 0.00 47 1016.1
20260506183102 66 79 3.5 7.8 0.00 0.00 0.00 47 1016.2
20260506183004 66 75 3.5 7.0 0.00 0.00 0.00 47 1016.1
20260506182902 66 95 2.6 7.0 0.00 0.00 0.00 47 1016.0
20260506182803 66 78 2.6 7.0 0.00 0.00 0.00 47 1016.0
20260506182704 66 82 2.6 6.1 0.00 0.00 0.00 47 1016.0
20260506182604 66 90 2.6 6.1 0.00 0.00 0.00 47 1016.0
20260506182502 66 92 2.6 6.1 0.00 0.00 0.00 47 1016.0
20260506182403 66 83 2.6 7.0 0.00 0.00 0.00 47 1016.0
20260506182306 66 87 2.6 7.0 0.00 0.00 0.00 47 1016.0
20260506182202 66 87 2.6 7.0 0.00 0.00 0.00 47 1016.0
20260506182108 66 93 3.5 7.0 0.00 0.00 0.00 47 1015.9
20260506182004 66 85 2.6 7.0 0.00 0.00 0.00 47 1015.9
20260506181902 66 89 2.6 7.0 0.00 0.00 0.00 47 1015.9
20260506181805 66 79 2.6 7.0 0.00 0.00 0.00 47 1015.9
20260506181703 66 100 2.6 7.0 0.00 0.00 0.00 47 1015.9
20260506181607 67 86 2.6 7.0 0.00 0.00 0.00 47 1015.9
20260506181502 67 76 2.6 7.0 0.00 0.00 0.00 47 1015.9
20260506181404 67 85 2.6 6.1 0.00 0.00 0.00 47 1015.9
20260506181302 67 89 2.6 6.1 0.00 0.00 0.00 47 1015.8
20260506181204 67 85 2.6 6.1 0.00 0.00 0.00 47 1015.8
20260506181104 67 81 3.5 7.0 0.00 0.00 0.00 47 1015.8
20260506181004 67 88 3.5 7.0 0.00 0.00 0.00 47 1015.8
20260506180902 67 103 3.5 7.8 0.00 0.00 0.00 47 1015.8
20260506180803 67 82 3.5 7.8 0.00 0.00 0.00 47 1015.8
20260506180704 67 87 3.5 7.8 0.00 0.00 0.00 47 1015.8
20260506180604 67 89 3.5 7.8 0.00 0.00 0.00 47 1015.8
20260506180502 67 89 4.3 7.8 0.00 0.00 0.00 47 1015.8
20260506180402 67 93 4.3 7.8 0.00 0.00 0.00 47 1015.8
20260506180303 67 90 4.3 7.8 0.00 0.00 0.00 47 1015.8
20260506180206 67 83 4.3 7.8 0.00 0.00 0.00 47 1015.8
20260506180103 67 82 4.3 7.8 0.00 0.00 0.00 47 1015.7
20260506180005 67 86 4.3 7.8 0.00 0.00 0.00 47 1015.8
20260506175903 67 91 4.3 7.0 0.00 0.00 0.00 47 1015.7
20260506175802 67 89 3.5 7.0 0.00 0.00 0.00 46 1015.7
20260506175703 67 81 3.5 7.0 0.00 0.00 0.00 46 1015.7
20260506175604 67 89 3.5 7.0 0.00 0.00 0.00 46 1015.7
20260506175502 67 85 3.5 7.0 0.00 0.00 0.00 46 1015.8
20260506175405 67 97 3.5 7.0 0.00 0.00 0.00 46 1015.7
20260506175306 67 91 4.3 7.0 0.00 0.00 0.00 46 1015.7
20260506175203 67 77 4.3 7.0 0.00 0.00 0.00 46 1015.7
20260506175104 67 81 3.5 7.0 0.00 0.00 0.00 46 1015.6
20260506175003 67 76 3.5 7.0 0.00 0.00 0.00 46 1015.7
20260506174902 68 89 3.5 7.0 0.00 0.00 0.00 46 1015.7
20260506174802 68 99 4.3 7.0 0.00 0.00 0.00 46 1015.7
20260506174704 68 93 4.3 7.0 0.00 0.00 0.00 46 1015.7
20260506174605 68 82 4.3 7.0 0.00 0.00 0.00 46 1015.6
20260506174503 68 90 3.5 7.0 0.00 0.00 0.00 46 1015.6
20260506174404 68 74 3.5 7.0 0.00 0.00 0.00 46 1015.7
20260506174304 68 74 3.5 7.0 0.00 0.00 0.00 46 1015.7
20260506174202 68 81 3.5 6.1 0.00 0.00 0.00 46 1015.6
20260506174102 68 79 3.5 6.1 0.00 0.00 0.00 46 1015.6
20260506174004 68 75 3.5 6.1 0.00 0.00 0.00 46 1015.6
20260506173903 68 88 3.5 6.1 0.00 0.00 0.00 46 1015.6
20260506173804 68 91 3.5 6.1 0.00 0.00 0.00 46 1015.6
20260506173704 68 79 3.5 6.1 0.00 0.00 0.00 47 1015.5
20260506173602 68 84 3.5 6.1 0.00 0.00 0.00 47 1015.6
20260506173503 68 90 3.5 6.1 0.00 0.00 0.00 47 1015.6
20260506173402 68 66 3.5 6.1 0.00 0.00 0.00 47 1015.6
20260506173302 68 83 3.5 7.0 0.00 0.00 0.00 47 1015.6
20260506173202 68 91 4.3 7.0 0.00 0.00 0.00 47 1015.6
20260506173103 68 79 4.3 7.8 0.00 0.00 0.00 47 1015.6
20260506173005 68 76 3.5 7.8 0.00 0.00 0.00 47 1015.6
20260506172903 68 79 3.5 7.8 0.00 0.00 0.00 47 1015.6
20260506172802 68 90 4.3 7.8 0.00 0.00 0.00 47 1015.5
20260506172703 68 74 4.3 7.8 0.00 0.00 0.00 47 1015.5
20260506172602 68 86 4.3 7.8 0.00 0.00 0.00 47 1015.6
20260506172502 68 89 4.3 7.8 0.00 0.00 0.00 47 1015.6
20260506172402 69 85 4.3 7.8 0.00 0.00 0.00 46 1015.5
20260506172306 69 76 4.3 7.8 0.00 0.00 0.00 46 1015.6
20260506172204 69 72 3.5 7.8 0.00 0.00 0.00 46 1015.5
20260506172102 69 83 3.5 6.1 0.00 0.00 0.00 46 1015.5
20260506172004 69 85 3.5 6.1 0.00 0.00 0.00 45 1015.6
20260506171902 69 91 3.5 6.1 0.00 0.00 0.00 45 1015.6
20260506171802 69 81 3.5 6.1 0.00 0.00 0.00 44 1015.6
20260506171704 69 79 3.5 6.1 0.00 0.00 0.00 44 1015.5
20260506171604 69 86 2.6 6.1 0.00 0.00 0.00 43 1015.5
20260506171503 69 76 2.6 5.2 0.00 0.00 0.00 43 1015.5
20260506171405 70 79 2.6 5.2 0.00 0.00 0.00 43 1015.5
20260506171302 70 85 2.6 5.2 0.00 0.00 0.00 42 1015.5
20260506171201 70 89 2.6 5.2 0.00 0.00 0.00 42 1015.5
20260506171104 70 130 2.6 5.2 0.00 0.00 0.00 41 1015.5
20260506171002 70 85 1.7 5.2 0.00 0.00 0.00 41 1015.5
20260506170902 70 85 1.7 5.2 0.00 0.00 0.00 41 1015.5
20260506170802 70 88 1.7 5.2 0.00 0.00 0.00 41 1015.5
20260506170702 70 79 1.7 5.2 0.00 0.00 0.00 41 1015.5
20260506170605 71 82 1.7 3.5 0.00 0.00 0.00 40 1015.5
20260506170504 71 102 1.7 3.5 0.00 0.00 0.00 40 1015.5
20260506170404 71 122 1.7 3.5 0.00 0.00 0.00 40 1015.6
20260506170302 71 87 1.7 3.5 0.00 0.00 0.00 40 1015.5
20260506170202 71 99 1.7 3.5 0.00 0.00 0.00 40 1015.5
20260506170104 71 118 1.7 3.5 0.00 0.00 0.00 40 1015.5
20260506170003 71 118 1.7 3.5 0.00 0.00 0.00 41 1015.5
20260506165903 71 114 1.7 3.5 0.00 0.00 0.00 41 1015.5
20260506165804 71 112 1.7 3.5 0.00 0.00 0.00 41 1015.6
20260506165702 71 124 1.7 3.5 0.00 0.00 0.00 41 1015.5
20260506165606 71 115 1.7 3.5 0.00 0.00 0.00 41 1015.6
20260506165503 71 115 1.7 3.5 0.00 0.00 0.00 41 1015.5
20260506165404 71 115 1.7 3.5 0.00 0.00 0.00 42 1015.5
20260506165305 71 103 1.7 3.5 0.00 0.00 0.00 42 1015.6
20260506165202 72 147 1.7 4.3 0.00 0.00 0.00 42 1015.6
20260506165103 72 147 1.7 4.3 0.00 0.00 0.00 42 1015.5
20260506165005 72 147 1.7 4.3 0.00 0.00 0.00 42 1015.6
20260506164903 72 151 1.7 4.3 0.00 0.00 0.00 43 1015.6
20260506164803 72 134 1.7 4.3 0.00 0.00 0.00 44 1015.6
20260506164702 72 134 1.7 4.3 0.00 0.00 0.00 43 1015.6
20260506164605 72 104 1.7 4.3 0.00 0.00 0.00 44 1015.6
20260506164502 72 94 1.7 4.3 0.00 0.00 0.00 44 1015.7
20260506164403 72 145 1.7 4.3 0.00 0.00 0.00 44 1015.7
20260506164302 72 145 1.7 4.3 0.00 0.00 0.00 44 1015.7
20260506164203 72 142 0.9 4.3 0.00 0.00 0.00 46 1015.7
20260506164105 72 140 1.7 3.5 0.00 0.00 0.00 46 1015.7
20260506164005 72 140 1.7 3.5 0.00 0.00 0.00 46 1015.7
20260506163903 72 140 1.7 3.5 0.00 0.00 0.00 45 1015.6
20260506163803 72 141 1.7 3.5 0.00 0.00 0.00 45 1015.6
20260506163703 72 140 1.7 3.5 0.00 0.00 0.00 45 1015.7
20260506163601 71 123 1.7 3.5 0.00 0.00 0.00 46 1015.6
20260506163458 71 206 1.7 4.3 0.00 0.00 0.00 46 1015.7
20260506163358 71 206 2.6 4.3 0.00 0.00 0.00 46 1015.7
20260506163258 71 206 1.7 4.3 0.00 0.00 0.00 46 1015.8
20260506163158 72 206 1.7 4.3 0.00 0.00 0.00 46 1015.7
20260506163054 72 206 1.7 4.3 0.00 0.00 0.00 45 1015.7
20260506162951 72 201 1.7 4.3 0.00 0.00 0.00 46 1015.7
20260506162849 72 174 2.6 4.3 0.00 0.00 0.00 46 1015.7
20260506162749 72 174 2.6 4.3 0.00 0.00 0.00 46 1015.7
20260506162649 72 173 2.6 5.2 0.00 0.00 0.00 46 1015.7
20260506162549 72 174 2.6 5.2 0.00 0.00 0.00 46 1015.7
20260506162447 72 171 2.6 5.2 0.00 0.00 0.00 46 1015.7
20260506162346 72 189 2.6 5.2 0.00 0.00 0.00 47 1015.7
20260506162246 72 128 2.6 5.2 0.00 0.00 0.00 47 1015.7
20260506162146 72 197 2.6 5.2 0.00 0.00 0.00 47 1015.7
20260506162043 72 198 2.6 5.2 0.00 0.00 0.00 47 1015.7
20260506161943 72 193 3.5 6.1 0.00 0.00 0.00 46 1015.8
20260506161842 72 176 3.5 6.1 0.00 0.00 0.00 46 1015.7
20260506161741 72 166 3.5 6.1 0.00 0.00 0.00 47 1015.7
20260506161640 72 195 3.5 6.1 0.00 0.00 0.00 47 1015.8
20260506161539 72 189 3.5 6.1 0.00 0.00 0.00 48 1015.7
20260506161440 72 176 4.3 7.0 0.00 0.00 0.00 48 1015.8
20260506161338 72 193 4.3 7.0 0.00 0.00 0.00 49 1015.7
20260506161238 72 186 4.3 9.6 0.00 0.00 0.00 49 1015.8
20260506161138 72 191 4.3 9.6 0.00 0.00 0.00 49 1015.8
20260506161038 72 184 4.3 9.6 0.00 0.00 0.00 49 1015.8
20260506160940 72 172 4.3 9.6 0.00 0.00 0.00 48 1015.8
20260506160839 72 218 4.3 9.6 0.00 0.00 0.00 48 1015.8
20260506160734 72 149 4.3 9.6 0.00 0.00 0.00 48 1015.8
20260506160634 72 177 4.3 9.6 0.00 0.00 0.00 47 1015.7
20260506160536 72 194 5.2 9.6 0.00 0.00 0.00 47 1015.8
20260506160434 72 181 5.2 9.6 0.00 0.00 0.00 47 1015.8
20260506160331 72 178 5.2 9.6 0.00 0.00 0.00 47 1015.8
20260506160232 72 188 5.2 9.6 0.00 0.00 0.00 47 1015.8
20260506160132 72 190 5.2 9.6 0.00 0.00 0.00 47 1015.8
20260506160031 72 183 6.1 9.6 0.00 0.00 0.00 47 1015.8
20260506155932 72 172 6.1 9.6 0.00 0.00 0.00 47 1015.9
20260506155836 72 197 6.1 9.6 0.00 0.00 0.00 47 1015.8
20260506155732 72 200 6.1 9.6 0.00 0.00 0.00 48 1015.8
20260506155630 72 211 6.1 9.6 0.00 0.00 0.00 48 1015.8
20260506155533 72 207 5.2 8.7 0.00 0.00 0.00 49 1015.9
20260506155432 72 211 5.2 8.7 0.00 0.00 0.00 49 1015.8
20260506155332 72 211 5.2 8.7 0.00 0.00 0.00 49 1015.8
20260506155233 72 220 4.3 8.7 0.00 0.00 0.00 48 1015.8
20260506155131 72 211 4.3 8.7 0.00 0.00 0.00 48 1015.8
20260506155032 72 194 4.3 7.8 0.00 0.00 0.00 49 1015.8
20260506154932 72 192 4.3 7.0 0.00 0.00 0.00 49 1015.8
20260506154834 72 206 4.3 7.0 0.00 0.00 0.00 50 1015.8
20260506154732 72 224 3.5 7.0 0.00 0.00 0.00 50 1015.8
20260506154632 72 216 3.5 6.1 0.00 0.00 0.00 50 1015.8
20260506154532 72 218 4.3 6.1 0.00 0.00 0.00 50 1015.8
20260506154432 72 216 4.3 7.0 0.00 0.00 0.00 50 1015.8
20260506154331 72 258 4.3 7.0 0.00 0.00 0.00 50 1015.9
20260506154231 72 240 4.3 7.0 0.00 0.00 0.00 50 1015.8
20260506154132 72 223 4.3 7.0 0.00 0.00 0.00 50 1015.9
20260506154029 72 238 4.3 7.0 0.00 0.00 0.00 49 1015.9
20260506153926 72 209 4.3 7.0 0.00 0.00 0.00 49 1015.9
20260506153828 72 224 4.3 7.0 0.00 0.00 0.00 49 1015.9
20260506153727 72 195 4.3 7.0 0.00 0.00 0.00 50 1015.9
20260506153626 72 190 4.3 9.6 0.00 0.00 0.00 49 1015.9
20260506153523 72 189 4.3 9.6 0.00 0.00 0.00 49 1015.9
20260506153423 72 192 4.3 9.6 0.00 0.00 0.00 50 1015.8
20260506153322 72 227 4.3 9.6 0.00 0.00 0.00 49 1015.9
20260506153223 72 257 4.3 9.6 0.00 0.00 0.00 49 1015.9
20260506153121 72 228 5.2 9.6 0.00 0.00 0.00 48 1015.9
20260506153014 72 235 5.2 9.6 0.00 0.00 0.00 47 1015.9
20260506152915 72 214 4.3 9.6 0.00 0.00 0.00 46 1016.0
20260506152816 72 186 4.3 9.6 0.00 0.00 0.00 46 1015.9
20260506152715 73 164 4.3 9.6 0.00 0.00 0.00 46 1016.0
20260506152615 73 192 4.3 8.7 0.00 0.00 0.00 47 1015.9
20260506152509 73 191 4.3 8.7 0.00 0.00 0.00 46 1015.9
20260506152409 73 182 4.3 8.7 0.00 0.00 0.00 46 1016.0
20260506152309 73 187 4.3 8.7 0.00 0.00 0.00 47 1016.0
20260506152208 73 180 4.3 8.7 0.00 0.00 0.00 47 1016.0
20260506152109 73 210 5.2 8.7 0.00 0.00 0.00 47 1016.0
20260506152005 73 216 5.2 11.3 0.00 0.00 0.00 47 1016.0
20260506151905 73 214 5.2 11.3 0.00 0.00 0.00 46 1016.0
20260506151802 73 189 6.1 11.3 0.00 0.00 0.00 47 1016.0
20260506151703 73 212 6.1 11.3 0.00 0.00 0.00 46 1016.0
20260506151603 73 213 6.1 11.3 0.00 0.00 0.00 47 1016.0
20260506151505 73 207 6.1 11.3 0.00 0.00 0.00 47 1016.0
20260506151403 73 189 6.1 11.3 0.00 0.00 0.00 46 1016.1
20260506151304 73 199 7.0 11.3 0.00 0.00 0.00 45 1016.1
20260506151206 73 210 7.0 11.3 0.00 0.00 0.00 46 1016.1
20260506151105 73 213 6.1 11.3 0.00 0.00 0.00 47 1016.1
20260506151003 73 199 6.1 10.4 0.00 0.00 0.00 47 1016.1
20260506150904 73 199 7.0 10.4 0.00 0.00 0.00 47 1016.1
20260506150803 73 176 6.1 10.4 0.00 0.00 0.00 47 1016.1
20260506150702 73 210 6.1 11.3 0.00 0.00 0.00 47 1016.1
20260506150604 73 190 6.1 11.3 0.00 0.00 0.00 47 1016.1
20260506150503 73 199 7.0 11.3 0.00 0.00 0.00 47 1016.0
20260506150403 73 198 7.0 11.3 0.00 0.00 0.00 46 1016.1
20260506150302 73 197 7.0 11.3 0.00 0.00 0.00 46 1016.2
20260506150156 73 178 7.0 11.3 0.00 0.00 0.00 46 1016.1
20260506150058 73 207 7.0 11.3 0.00 0.00 0.00 47 1016.1
20260506145956 73 206 7.0 11.3 0.00 0.00 0.00 47 1016.2
20260506145856 73 205 6.1 11.3 0.00 0.00 0.00 46 1016.1
20260506145749 73 185 6.1 11.3 0.00 0.00 0.00 46 1016.1
20260506145701 73 201 6.1 11.3 0.00 0.00 0.00 46 1016.1
20260506145549 73 221 6.1 11.3 0.00 0.00 0.00 46 1016.2
20260506145448 73 199 5.2 11.3 0.00 0.00 0.00 46 1016.1
20260506145349 73 216 5.2 11.3 0.00 0.00 0.00 45 1016.1
20260506145249 73 209 5.2 11.3 0.00 0.00 0.00 46 1016.1
20260506145143 73 197 4.3 11.3 0.00 0.00 0.00 46 1016.1
20260506145041 73 199 4.3 8.7 0.00 0.00 0.00 49 1016.1
20260506144944 73 237 4.3 8.7 0.00 0.00 0.00 49 1016.1
20260506144841 73 261 4.3 8.7 0.00 0.00 0.00 50 1016.1
20260506144737 73 233 4.3 8.7 0.00 0.00 0.00 50 1016.0
20260506144635 73 245 4.3 8.7 0.00 0.00 0.00 50 1016.1
20260506144534 73 219 5.2 8.7 0.00 0.00 0.00 49 1016.1
20260506144435 73 240 5.2 8.7 0.00 0.00 0.00 49 1016.1
20260506144334 73 232 5.2 12.2 0.00 0.00 0.00 49 1016.2
20260506144234 73 248 5.2 12.2 0.00 0.00 0.00 48 1016.1
20260506144133 73 207 6.1 12.2 0.00 0.00 0.00 46 1016.1
20260506144034 73 191 5.2 12.2 0.00 0.00 0.00 46 1016.2
20260506143934 73 197 5.2 12.2 0.00 0.00 0.00 47 1016.2
20260506143834 73 212 5.2 12.2 0.00 0.00 0.00 47 1016.2
20260506143734 73 220 5.2 12.2 0.00 0.00 0.00 46 1016.1
20260506143632 74 222 5.2 12.2 0.00 0.00 0.00 46 1016.2
20260506143533 74 228 5.2 12.2 0.00 0.00 0.00 47 1016.2
20260506143433 74 216 5.2 12.2 0.00 0.00 0.00 46 1016.2
20260506143332 74 173 5.2 10.4 0.00 0.00 0.00 47 1016.3
20260506143233 73 172 4.3 8.7 0.00 0.00 0.00 49 1016.2
20260506143132 74 236 4.3 7.8 0.00 0.00 0.00 48 1016.3
20260506143033 74 219 4.3 9.6 0.00 0.00 0.00 48 1016.2
20260506142932 74 212 4.3 9.6 0.00 0.00 0.00 48 1016.3
20260506142832 74 208 4.3 9.6 0.00 0.00 0.00 48 1016.3
20260506142732 74 223 5.2 10.4 0.00 0.00 0.00 48 1016.2
20260506142633 74 216 5.2 10.4 0.00 0.00 0.00 48 1016.3
20260506142526 74 216 5.2 10.4 0.00 0.00 0.00 48 1016.3
20260506142427 74 185 5.2 11.3 0.00 0.00 0.00 48 1016.3
20260506142328 74 224 5.2 11.3 0.00 0.00 0.00 48 1016.3
20260506142227 74 215 5.2 11.3 0.00 0.00 0.00 47 1016.4
20260506142127 74 193 6.1 11.3 0.00 0.00 0.00 47 1016.4
20260506142021 74 225 6.1 11.3 0.00 0.00 0.00 48 1016.4
20260506141921 74 165 6.1 13.0 0.00 0.00 0.00 46 1016.4
20260506141822 74 172 6.1 13.0 0.00 0.00 0.00 48 1016.4
20260506141722 74 197 6.1 13.0 0.00 0.00 0.00 47 1016.4
20260506141621 74 218 6.1 13.0 0.00 0.00 0.00 47 1016.4
20260506141515 74 216 6.1 13.0 0.00 0.00 0.00 47 1016.4
20260506141414 74 208 6.1 13.0 0.00 0.00 0.00 48 1016.4
20260506141315 74 185 6.1 13.0 0.00 0.00 0.00 48 1016.4
20260506141215 74 218 6.1 13.0 0.00 0.00 0.00 46 1016.3
20260506141114 74 195 6.1 13.0 0.00 0.00 0.00 46 1016.4
20260506141010 74 216 6.1 13.0 0.00 0.00 0.00 46 1016.5
20260506140912 74 200 5.2 10.4 0.00 0.00 0.00 48 1016.4
20260506140810 74 208 5.2 10.4 0.00 0.00 0.00 48 1016.4
20260506140711 74 229 6.1 10.4 0.00 0.00 0.00 48 1016.5
20260506140609 74 222 6.1 10.4 0.00 0.00 0.00 47 1016.4
20260506140507 74 215 6.1 10.4 0.00 0.00 0.00 46 1016.5
20260506140408 74 224 6.1 10.4 0.00 0.00 0.00 46 1016.5
20260506140309 74 203 6.1 10.4 0.00 0.00 0.00 45 1016.4
20260506140207 74 221 6.1 10.4 0.00 0.00 0.00 46 1016.4
20260506140109 74 187 6.1 11.3 0.00 0.00 0.00 45 1016.4
20260506140008 74 211 6.1 11.3 0.00 0.00 0.00 45 1016.4
20260506135910 74 211 6.1 11.3 0.00 0.00 0.00 44 1016.5
20260506135806 74 170 6.1 11.3 0.00 0.00 0.00 45 1016.4
20260506135707 74 203 6.1 11.3 0.00 0.00 0.00 44 1016.5
20260506135605 74 185 6.1 11.3 0.00 0.00 0.00 46 1016.5
20260506135504 74 218 6.1 11.3 0.00 0.00 0.00 47 1016.4
20260506135404 74 234 6.1 11.3 0.00 0.00 0.00 46 1016.4
20260506135305 74 203 6.1 11.3 0.00 0.00 0.00 46 1016.5
20260506135203 74 215 5.2 9.6 0.00 0.00 0.00 47 1016.4
20260506135103 74 281 6.1 9.6 0.00 0.00 0.00 48 1016.4
20260506135004 74 222 6.1 9.6 0.00 0.00 0.00 47 1016.4
20260506134906 74 208 6.1 9.6 0.00 0.00 0.00 47 1016.4
20260506134804 74 237 6.1 9.6 0.00 0.00 0.00 46 1016.4
20260506134703 74 180 6.1 9.6 0.00 0.00 0.00 47 1016.4
20260506134603 73 220 6.1 9.6 0.00 0.00 0.00 47 1016.4
20260506134504 73 203 6.1 9.6 0.00 0.00 0.00 47 1016.4
20260506134405 74 245 6.1 9.6 0.00 0.00 0.00 47 1016.4
20260506134303 73 195 6.1 10.4 0.00 0.00 0.00 48 1016.3
20260506134204 73 211 6.1 10.4 0.00 0.00 0.00 48 1016.4
20260506134103 73 253 6.1 10.4 0.00 0.00 0.00 46 1016.4
20260506134003 73 206 6.1 10.4 0.00 0.00 0.00 47 1016.4
20260506133906 73 224 6.1 10.4 0.00 0.00 0.00 47 1016.4
20260506133803 73 243 6.1 12.2 0.00 0.00 0.00 46 1016.5
20260506133702 74 231 6.1 12.2 0.00 0.00 0.00 45 1016.5
20260506133602 74 238 6.1 12.2 0.00 0.00 0.00 46 1016.5
20260506133503 74 214 6.1 12.2 0.00 0.00 0.00 44 1016.4
20260506133405 74 201 6.1 12.2 0.00 0.00 0.00 45 1016.4
20260506133302 74 205 6.1 12.2 0.00 0.00 0.00 46 1016.5
20260506133205 74 235 7.0 12.2 0.00 0.00 0.00 46 1016.4
20260506133104 74 229 7.0 12.2 0.00 0.00 0.00 47 1016.5
20260506133004 74 238 6.1 12.2 0.00 0.00 0.00 46 1016.5
20260506132904 74 236 7.0 12.2 0.00 0.00 0.00 46 1016.5
20260506132802 74 218 7.0 13.9 0.00 0.00 0.00 46 1016.5
20260506132703 74 223 7.0 13.9 0.00 0.00 0.00 47 1016.5
20260506132603 74 220 7.0 13.9 0.00 0.00 0.00 47 1016.5
20260506132502 74 205 7.0 13.9 0.00 0.00 0.00 47 1016.5
20260506132405 74 228 7.0 13.9 0.00 0.00 0.00 47 1016.5
20260506132307 74 197 7.0 13.9 0.00 0.00 0.00 47 1016.4
20260506132203 74 240 6.1 13.9 0.00 0.00 0.00 47 1016.4
20260506132102 74 227 6.1 13.9 0.00 0.00 0.00 47 1016.6
20260506132002 74 243 6.1 13.9 0.00 0.00 0.00 46 1016.5
20260506131904 74 210 6.1 13.9 0.00 0.00 0.00 46 1016.5
20260506131804 74 196 5.2 11.3 0.00 0.00 0.00 46 1016.5
20260506131703 74 203 5.2 9.6 0.00 0.00 0.00 47 1016.5
20260506131603 74 197 5.2 8.7 0.00 0.00 0.00 47 1016.5
20260506131504 74 222 6.1 8.7 0.00 0.00 0.00 46 1016.5
20260506131420 74 220 6.1 9.6 0.00 0.00 0.00 48 1016.5
20260506131303 73 257 6.1 12.2 0.00 0.00 0.00 47 1016.5
20260506131204 73 244 6.1 12.2 0.00 0.00 0.00 49 1016.5
20260506131103 73 226 6.1 12.2 0.00 0.00 0.00 48 1016.5
20260506131004 73 233 6.1 12.2 0.00 0.00 0.00 48 1016.5
20260506130904 73 246 6.1 12.2 0.00 0.00 0.00 48 1016.5
20260506130802 73 248 7.0 12.2 0.00 0.00 0.00 48 1016.5
20260506130703 73 252 7.0 12.2 0.00 0.00 0.00 48 1016.5
20260506130604 73 212 7.0 12.2 0.00 0.00 0.00 48 1016.5
20260506130505 73 227 6.1 12.2 0.00 0.00 0.00 49 1016.5
20260506130404 73 218 7.0 12.2 0.00 0.00 0.00 49 1016.5
20260506130302 73 214 6.1 11.3 0.00 0.00 0.00 49 1016.5
20260506130205 73 244 7.0 11.3 0.00 0.00 0.00 50 1016.4
20260506130103 73 301 7.0 11.3 0.00 0.00 0.00 50 1016.4
20260506130005 73 207 7.0 12.2 0.00 0.00 0.00 49 1016.4
20260506125904 73 251 7.0 12.2 0.00 0.00 0.00 49 1016.5
20260506125804 74 205 7.0 12.2 0.00 0.00 0.00 49 1016.5
20260506125703 74 220 7.0 12.2 0.00 0.00 0.00 50 1016.4
20260506125605 74 239 7.0 12.2 0.00 0.00 0.00 50 1016.5
20260506125503 73 199 7.0 12.2 0.00 0.00 0.00 50 1016.5
20260506125404 73 166 7.0 12.2 0.00 0.00 0.00 50 1016.4
20260506125305 73 218 7.0 12.2 0.00 0.00 0.00 50 1016.5
20260506125203 73 232 7.0 12.2 0.00 0.00 0.00 52 1016.4
20260506125103 73 163 7.0 12.2 0.00 0.00 0.00 51 1016.5
20260506125004 73 215 6.1 11.3 0.00 0.00 0.00 51 1016.5
20260506124905 73 212 7.0 11.3 0.00 0.00 0.00 52 1016.5
20260506124803 73 228 6.1 12.2 0.00 0.00 0.00 52 1016.5
20260506124703 73 238 7.0 12.2 0.00 0.00 0.00 53 1016.5
20260506124606 73 223 7.0 12.2 0.00 0.00 0.00 52 1016.5
20260506124504 73 218 7.0 12.2 0.00 0.00 0.00 52 1016.5
20260506124404 73 176 7.0 12.2 0.00 0.00 0.00 51 1016.5
20260506124303 73 195 7.0 13.9 0.00 0.00 0.00 51 1016.6
20260506124204 73 223 7.8 13.9 0.00 0.00 0.00 51 1016.6
20260506124103 73 228 7.8 14.8 0.00 0.00 0.00 51 1016.6
20260506124007 73 237 7.8 16.5 0.00 0.00 0.00 50 1016.6
20260506123904 73 208 7.8 16.5 0.00 0.00 0.00 50 1016.6
20260506123803 73 201 7.8 16.5 0.00 0.00 0.00 50 1016.6
20260506123704 73 187 7.8 16.5 0.00 0.00 0.00 50 1016.6
20260506123604 73 220 7.0 16.5 0.00 0.00 0.00 50 1016.7
20260506123503 73 216 7.0 16.5 0.00 0.00 0.00 49 1016.6
20260506123404 73 180 7.0 16.5 0.00 0.00 0.00 50 1016.6
20260506123308 73 209 7.0 16.5 0.00 0.00 0.00 49 1016.6
20260506123202 74 212 7.0 16.5 0.00 0.00 0.00 49 1016.6
20260506123104 74 192 6.1 16.5 0.00 0.00 0.00 50 1016.7
20260506123004 74 188 7.0 10.4 0.00 0.00 0.00 51 1016.6
20260506122906 73 186 7.0 12.2 0.00 0.00 0.00 51 1016.6
20260506122807 73 234 7.0 12.2 0.00 0.00 0.00 52 1016.7
20260506122703 73 203 7.0 12.2 0.00 0.00 0.00 52 1016.6
20260506122603 73 257 7.0 12.2 0.00 0.00 0.00 52 1016.6
20260506122504 73 193 7.0 12.2 0.00 0.00 0.00 53 1016.7
20260506122405 73 229 7.0 13.9 0.00 0.00 0.00 53 1016.6
20260506122306 73 236 7.0 13.9 0.00 0.00 0.00 52 1016.6
20260506122203 73 193 7.0 13.9 0.00 0.00 0.00 52 1016.6
20260506122105 73 214 7.0 13.9 0.00 0.00 0.00 52 1016.6
20260506122003 73 220 7.0 13.9 0.00 0.00 0.00 52 1016.7
20260506121905 73 199 7.0 13.9 0.00 0.00 0.00 52 1016.6
20260506121804 73 220 7.0 14.8 0.00 0.00 0.00 52 1016.7
20260506121703 73 226 7.0 14.8 0.00 0.00 0.00 52 1016.7
20260506121603 73 249 7.0 14.8 0.00 0.00 0.00 53 1016.7
20260506121504 73 221 7.0 14.8 0.00 0.00 0.00 53 1016.7
20260506121406 73 205 7.8 14.8 0.00 0.00 0.00 53 1016.6
20260506121307 73 226 7.8 14.8 0.00 0.00 0.00 52 1016.6
20260506121203 73 220 7.8 14.8 0.00 0.00 0.00 52 1016.7
20260506121103 73 227 7.8 14.8 0.00 0.00 0.00 51 1016.8
20260506121003 73 210 7.8 14.8 0.00 0.00 0.00 51 1016.8
20260506120905 73 205 7.8 14.8 0.00 0.00 0.00 52 1016.7
20260506120803 73 217 7.0 12.2 0.00 0.00 0.00 51 1016.8
20260506120704 73 214 7.0 12.2 0.00 0.00 0.00 48 1016.8
20260506120603 73 230 7.0 12.2 0.00 0.00 0.00 48 1016.7
20260506120504 73 212 7.0 12.2 0.00 0.00 0.00 47 1016.8
20260506120405 73 225 7.0 12.2 0.00 0.00 0.00 48 1016.7
20260506120304 73 207 6.1 12.2 0.00 0.00 0.00 49 1016.7
20260506120203 73 210 6.1 12.2 0.00 0.00 0.00 49 1016.7
20260506120104 73 240 6.1 12.2 0.00 0.00 0.00 48 1016.7
20260506120004 73 224 6.1 12.2 0.00 0.00 0.00 47 1016.7
20260506115904 73 239 6.1 10.4 0.00 0.00 0.00 49 1016.7
20260506115803 72 233 5.2 10.4 0.00 0.00 0.00 49 1016.8
20260506115703 72 264 5.2 10.4 0.00 0.00 0.00 49 1016.7
20260506115602 72 248 5.2 10.4 0.00 0.00 0.00 49 1016.8
20260506115502 73 195 5.2 10.4 0.00 0.00 0.00 49 1016.8
20260506115406 73 247 5.2 10.4 0.00 0.00 0.00 49 1016.8
20260506115306 73 229 5.2 8.7 0.00 0.00 0.00 50 1016.8
20260506115203 73 220 5.2 8.7 0.00 0.00 0.00 51 1016.8
20260506115102 72 222 5.2 9.6 0.00 0.00 0.00 53 1016.8
20260506115004 72 217 5.2 9.6 0.00 0.00 0.00 51 1016.8
20260506114905 73 251 5.2 9.6 0.00 0.00 0.00 51 1016.8
20260506114804 73 257 5.2 9.6 0.00 0.00 0.00 50 1016.8
20260506114704 73 254 5.2 9.6 0.00 0.00 0.00 50 1016.9
20260506114604 73 282 6.1 9.6 0.00 0.00 0.00 50 1016.9
20260506114506 73 215 6.1 10.4 0.00 0.00 0.00 51 1016.8
20260506114405 73 219 5.2 10.4 0.00 0.00 0.00 51 1016.9
20260506114304 73 227 6.1 10.4 0.00 0.00 0.00 50 1016.8
20260506114203 73 150 5.2 10.4 0.00 0.00 0.00 50 1016.9
20260506114105 72 212 5.2 10.4 0.00 0.00 0.00 51 1016.8
20260506114004 72 199 5.2 10.4 0.00 0.00 0.00 50 1016.8
20260506113904 72 220 5.2 11.3 0.00 0.00 0.00 51 1016.9
20260506113803 72 207 5.2 11.3 0.00 0.00 0.00 53 1016.8
20260506113704 72 199 4.3 11.3 0.00 0.00 0.00 53 1016.9
20260506113605 72 255 4.3 11.3 0.00 0.00 0.00 53 1016.8
20260506113502 72 241 4.3 11.3 0.00 0.00 0.00 52 1016.9
20260506113418 72 238 4.3 11.3 0.00 0.00 0.00 52 1016.9
20260506113304 72 210 4.3 11.3 0.00 0.00 0.00 52 1016.8
20260506113202 72 273 4.3 11.3 0.00 0.00 0.00 53 1016.9
20260506113102 72 237 5.2 11.3 0.00 0.00 0.00 53 1016.9
20260506113004 72 237 4.3 11.3 0.00 0.00 0.00 54 1016.9
20260506112905 72 210 5.2 11.3 0.00 0.00 0.00 55 1016.9
20260506112805 72 188 5.2 11.3 0.00 0.00 0.00 55 1016.9
20260506112704 71 264 5.2 11.3 0.00 0.00 0.00 54 1017.0
20260506112602 71 226 5.2 11.3 0.00 0.00 0.00 55 1016.9
20260506112503 71 251 6.1 11.3 0.00 0.00 0.00 55 1017.0
20260506112405 71 222 5.2 11.3 0.00 0.00 0.00 55 1016.9
20260506112306 71 259 5.2 11.3 0.00 0.00 0.00 55 1016.9
20260506112202 71 256 5.2 11.3 0.00 0.00 0.00 55 1016.9
20260506112103 71 249 5.2 11.3 0.00 0.00 0.00 55 1016.9
20260506112004 71 276 5.2 9.6 0.00 0.00 0.00 55 1016.9
20260506111905 71 260 5.2 9.6 0.00 0.00 0.00 55 1016.9
20260506111803 71 232 5.2 9.6 0.00 0.00 0.00 54 1016.9
20260506111702 72 249 5.2 9.6 0.00 0.00 0.00 54 1016.9
20260506111604 72 218 4.3 9.6 0.00 0.00 0.00 55 1017.0
20260506111504 72 228 4.3 9.6 0.00 0.00 0.00 56 1016.8
20260506111404 72 242 5.2 9.6 0.00 0.00 0.00 56 1016.9
20260506111303 72 271 5.2 12.2 0.00 0.00 0.00 56 1016.9
20260506111203 72 247 4.3 12.2 0.00 0.00 0.00 56 1016.8
20260506111105 72 202 4.3 12.2 0.00 0.00 0.00 56 1016.8
20260506111003 72 245 4.3 12.2 0.00 0.00 0.00 56 1016.8
20260506110905 72 249 5.2 12.2 0.00 0.00 0.00 55 1016.9
20260506110802 72 273 5.2 12.2 0.00 0.00 0.00 54 1016.8
20260506110704 72 297 5.2 12.2 0.00 0.00 0.00 55 1016.8
20260506110604 72 205 5.2 12.2 0.00 0.00 0.00 54 1016.8
20260506110504 72 248 5.2 12.2 0.00 0.00 0.00 55 1016.9
20260506110417 72 234 5.2 12.2 0.00 0.00 0.00 56 1016.8
20260506110304 72 197 5.2 12.2 0.00 0.00 0.00 59 1016.8
20260506110204 72 227 5.2 12.2 0.00 0.00 0.00 58 1016.8
20260506110104 72 226 6.1 12.2 0.00 0.00 0.00 57 1016.8
20260506110005 72 228 6.1 12.2 0.00 0.00 0.00 57 1016.9
20260506105905 72 232 6.1 12.2 0.00 0.00 0.00 58 1016.8
20260506105803 72 254 6.1 12.2 0.00 0.00 0.00 58 1016.8
20260506105703 72 282 6.1 12.2 0.00 0.00 0.00 57 1016.8
20260506105603 72 253 6.1 12.2 0.00 0.00 0.00 55 1016.8
20260506105504 73 213 6.1 12.2 0.00 0.00 0.00 56 1016.7
20260506105406 73 232 6.1 11.3 0.00 0.00 0.00 56 1016.8
20260506105305 73 198 6.1 11.3 0.00 0.00 0.00 58 1016.8
20260506105204 73 242 6.1 11.3 0.00 0.00 0.00 56 1016.8
20260506105103 73 233 6.1 13.9 0.00 0.00 0.00 57 1016.8
20260506105002 73 202 6.1 13.9 0.00 0.00 0.00 58 1016.7
20260506104906 73 214 7.0 17.4 0.00 0.00 0.00 59 1016.8
20260506104804 72 262 7.0 17.4 0.00 0.00 0.00 59 1016.8
20260506104703 72 219 7.0 17.4 0.00 0.00 0.00 58 1016.7
20260506104604 73 290 7.0 17.4 0.00 0.00 0.00 57 1016.7
20260506104503 73 210 7.0 17.4 0.00 0.00 0.00 57 1016.8
20260506104405 73 278 7.0 17.4 0.00 0.00 0.00 57 1016.8
20260506104303 73 198 7.0 17.4 0.00 0.00 0.00 56 1016.7
20260506104204 73 246 7.0 17.4 0.00 0.00 0.00 52 1016.7
20260506104059 73 229 7.0 17.4 0.00 0.00 0.00 53 1016.7
20260506103958 73 195 7.0 17.4 0.00 0.00 0.00 50 1016.7
20260506103859 73 194 7.0 12.2 0.00 0.00 0.00 54 1016.7
20260506103757 73 201 7.0 12.2 0.00 0.00 0.00 55 1016.7
20260506103659 73 202 6.1 12.2 0.00 0.00 0.00 54 1016.7
20260506103553 73 214 6.1 12.2 0.00 0.00 0.00 55 1016.8
20260506103453 73 219 6.1 12.2 0.00 0.00 0.00 55 1016.8
20260506103351 73 226 6.1 12.2 0.00 0.00 0.00 53 1016.7
20260506103253 73 214 6.1 12.2 0.00 0.00 0.00 53 1016.7
20260506103152 72 236 6.1 12.2 0.00 0.00 0.00 55 1016.7
20260506103052 72 220 6.1 12.2 0.00 0.00 0.00 54 1016.7
20260506102951 72 230 6.1 12.2 0.00 0.00 0.00 53 1016.7
20260506102849 72 234 6.1 12.2 0.00 0.00 0.00 54 1016.7
20260506102749 72 280 6.1 12.2 0.00 0.00 0.00 57 1016.8
20260506102651 72 205 7.0 13.9 0.00 0.00 0.00 57 1016.7
20260506102549 72 269 6.1 13.9 0.00 0.00 0.00 56 1016.8
20260506102450 73 215 6.1 13.9 0.00 0.00 0.00 54 1016.7
20260506102349 74 237 6.1 13.9 0.00 0.00 0.00 53 1016.7
20260506102251 74 224 6.1 13.9 0.00 0.00 0.00 51 1016.8
20260506102151 74 224 6.1 13.9 0.00 0.00 0.00 51 1016.6
20260506102050 74 211 6.1 13.9 0.00 0.00 0.00 50 1016.7
20260506101951 73 203 6.1 13.9 0.00 0.00 0.00 51 1016.8
20260506101847 73 230 6.1 13.9 0.00 0.00 0.00 51 1016.8
20260506101743 73 194 6.1 13.9 0.00 0.00 0.00 53 1016.7
20260506101643 73 192 6.1 13.0 0.00 0.00 0.00 52 1016.7
20260506101543 73 207 6.1 13.0 0.00 0.00 0.00 51 1016.7
20260506101444 73 244 6.1 13.0 0.00 0.00 0.00 51 1016.7
20260506101339 73 245 6.1 13.9 0.00 0.00 0.00 50 1016.7
20260506101240 73 243 6.1 13.9 0.00 0.00 0.00 49 1016.7
20260506101141 73 195 7.0 13.9 0.00 0.00 0.00 46 1016.7
20260506101040 73 206 7.0 13.9 0.00 0.00 0.00 45 1016.7
20260506100940 73 247 7.0 13.9 0.00 0.00 0.00 45 1016.8
20260506100840 73 220 7.0 13.9 0.00 0.00 0.00 45 1016.8
20260506100742 73 229 7.0 13.9 0.00 0.00 0.00 45 1016.7
20260506100637 73 212 7.0 13.9 0.00 0.00 0.00 45 1016.7
20260506100538 73 221 7.0 13.9 0.00 0.00 0.00 45 1016.8
20260506100437 73 201 7.0 13.9 0.00 0.00 0.00 45 1016.7
20260506100338 73 176 7.8 13.9 0.00 0.00 0.00 46 1016.8
20260506100237 73 218 7.8 13.9 0.00 0.00 0.00 45 1016.8
20260506100140 73 236 7.8 13.9 0.00 0.00 0.00 45 1016.8
20260506100037 73 251 7.8 13.9 0.00 0.00 0.00 44 1016.8
20260506095938 73 236 7.8 13.9 0.00 0.00 0.00 45 1016.9
20260506095838 73 239 7.8 13.9 0.00 0.00 0.00 46 1016.8
20260506095742 73 224 7.8 13.9 0.00 0.00 0.00 46 1016.8
20260506095638 73 225 7.8 13.9 0.00 0.00 0.00 48 1016.8
20260506095537 73 206 7.0 13.9 0.00 0.00 0.00 48 1016.8
20260506095438 73 216 7.0 13.9 0.00 0.00 0.00 49 1016.8
20260506095337 73 249 7.0 11.3 0.00 0.00 0.00 49 1016.8
20260506095240 73 262 7.0 10.4 0.00 0.00 0.00 49 1016.7
20260506095137 73 209 7.0 11.3 0.00 0.00 0.00 50 1016.7
20260506095037 73 220 7.0 11.3 0.00 0.00 0.00 51 1016.7
20260506094937 73 231 7.0 11.3 0.00 0.00 0.00 50 1016.7
20260506094837 73 249 7.0 11.3 0.00 0.00 0.00 48 1016.7
20260506094738 73 229 7.0 11.3 0.00 0.00 0.00 48 1016.7
20260506094637 73 222 7.0 13.9 0.00 0.00 0.00 47 1016.6
20260506094537 73 239 7.0 13.9 0.00 0.00 0.00 45 1016.7
20260506094432 74 251 7.0 13.9 0.00 0.00 0.00 44 1016.7
20260506094331 74 243 7.0 13.9 0.00 0.00 0.00 45 1016.7
20260506094233 74 240 7.0 13.9 0.00 0.00 0.00 45 1016.7
20260506094132 74 224 7.0 13.9 0.00 0.00 0.00 44 1016.7
20260506094031 74 216 7.0 13.9 0.00 0.00 0.00 45 1016.7
20260506093932 74 173 7.0 13.9 0.00 0.00 0.00 45 1016.7
20260506093831 73 216 7.8 13.9 0.00 0.00 0.00 45 1016.7
20260506093731 73 227 7.8 13.9 0.00 0.00 0.00 43 1016.7
20260506093631 73 264 7.8 13.0 0.00 0.00 0.00 44 1016.7
20260506093533 73 214 7.8 13.0 0.00 0.00 0.00 44 1016.7
20260506093435 73 189 7.8 13.0 0.00 0.00 0.00 44 1016.7
20260506093332 73 217 7.8 13.0 0.00 0.00 0.00 43 1016.7
20260506093232 73 210 7.8 13.0 0.00 0.00 0.00 42 1016.7
20260506093132 73 265 7.8 13.0 0.00 0.00 0.00 42 1016.7
20260506093030 73 220 7.0 13.0 0.00 0.00 0.00 42 1016.7
20260506092931 73 248 7.0 13.0 0.00 0.00 0.00 43 1016.7
20260506092832 73 185 7.0 12.2 0.00 0.00 0.00 44 1016.7
20260506092732 73 256 7.0 12.2 0.00 0.00 0.00 43 1016.7
20260506092630 73 216 7.0 12.2 0.00 0.00 0.00 44 1016.7
20260506092532 74 262 7.0 12.2 0.00 0.00 0.00 44 1016.6
20260506092432 74 250 7.0 12.2 0.00 0.00 0.00 44 1016.7
20260506092332 74 221 7.0 12.2 0.00 0.00 0.00 44 1016.6
20260506092231 74 218 7.0 12.2 0.00 0.00 0.00 44 1016.7
20260506092132 73 212 7.0 12.2 0.00 0.00 0.00 44 1016.7
20260506092028 73 274 7.8 12.2 0.00 0.00 0.00 44 1016.7
20260506091928 74 257 7.0 11.3 0.00 0.00 0.00 43 1016.7
20260506091829 74 272 7.0 11.3 0.00 0.00 0.00 42 1016.6
20260506091726 74 220 7.8 11.3 0.00 0.00 0.00 40 1016.7
20260506091629 74 232 7.8 11.3 0.00 0.00 0.00 41 1016.6
20260506091527 74 207 7.8 11.3 0.00 0.00 0.00 41 1016.7
20260506091427 74 227 7.8 11.3 0.00 0.00 0.00 40 1016.7
20260506091325 74 189 7.8 11.3 0.00 0.00 0.00 40 1016.7
20260506091227 74 289 7.8 11.3 0.00 0.00 0.00 39 1016.7
20260506091126 74 199 7.0 11.3 0.00 0.00 0.00 40 1016.7
20260506091025 74 216 7.0 10.4 0.00 0.00 0.00 40 1016.6
20260506090927 74 202 7.0 10.4 0.00 0.00 0.00 39 1016.7
20260506090821 74 216 7.0 10.4 0.00 0.00 0.00 39 1016.7
20260506090721 74 210 6.1 10.4 0.00 0.00 0.00 39 1016.7
20260506090622 74 234 6.1 12.2 0.00 0.00 0.00 39 1016.7
20260506090521 74 227 6.1 12.2 0.00 0.00 0.00 39 1016.7
20260506090422 74 220 5.2 12.2 0.00 0.00 0.00 40 1016.7
20260506090321 74 228 5.2 12.2 0.00 0.00 0.00 41 1016.7
20260506090221 74 229 5.2 12.2 0.00 0.00 0.00 41 1016.7
20260506090119 74 214 6.1 12.2 0.00 0.00 0.00 40 1016.7
20260506090020 74 209 5.2 12.2 0.00 0.00 0.00 40 1016.7
20260506085920 74 264 5.2 12.2 0.00 0.00 0.00 40 1016.6
20260506085821 74 237 5.2 12.2 0.00 0.00 0.00 42 1016.6
20260506085721 74 225 6.1 12.2 0.00 0.00 0.00 41 1016.6
20260506085615 74 216 6.1 11.3 0.00 0.00 0.00 41 1016.6
20260506085517 74 254 5.2 9.6 0.00 0.00 0.00 40 1016.6
20260506085415 74 224 5.2 9.6 0.00 0.00 0.00 40 1016.6
20260506085315 74 234 5.2 9.6 0.00 0.00 0.00 40 1016.6
20260506085215 74 210 5.2 9.6 0.00 0.00 0.00 42 1016.6
20260506085115 74 226 5.2 9.6 0.00 0.00 0.00 41 1016.6
20260506085015 74 215 5.2 9.6 0.00 0.00 0.00 41 1016.6
20260506084916 74 220 5.2 9.6 0.00 0.00 0.00 40 1016.6
20260506084815 74 214 5.2 9.6 0.00 0.00 0.00 41 1016.6
20260506084717 74 222 5.2 9.6 0.00 0.00 0.00 41 1016.6
20260506084616 74 223 5.2 9.6 0.00 0.00 0.00 41 1016.6
20260506084515 74 255 5.2 9.6 0.00 0.00 0.00 41 1016.6
20260506084415 74 245 5.2 8.7 0.00 0.00 0.00 41 1016.6
20260506084316 74 254 5.2 8.7 0.00 0.00 0.00 42 1016.7
20260506084215 74 241 5.2 8.7 0.00 0.00 0.00 41 1016.6
20260506084115 74 207 5.2 8.7 0.00 0.00 0.00 41 1016.6
20260506084016 74 241 5.2 8.7 0.00 0.00 0.00 41 1016.5
20260506083916 74 230 5.2 8.7 0.00 0.00 0.00 41 1016.5
20260506083817 74 249 5.2 8.7 0.00 0.00 0.00 41 1016.6
20260506083712 74 305 5.2 8.7 0.00 0.00 0.00 40 1016.6
20260506083612 74 241 5.2 8.7 0.00 0.00 0.00 41 1016.6
20260506083512 74 243 5.2 8.7 0.00 0.00 0.00 41 1016.6
20260506083412 74 241 5.2 9.6 0.00 0.00 0.00 40 1016.5
20260506083311 74 227 5.2 9.6 0.00 0.00 0.00 41 1016.5
20260506083212 74 239 5.2 9.6 0.00 0.00 0.00 41 1016.5
20260506083111 74 234 5.2 9.6 0.00 0.00 0.00 41 1016.5
20260506083012 74 215 4.3 9.6 0.00 0.00 0.00 41 1016.5
20260506082911 74 216 4.3 9.6 0.00 0.00 0.00 41 1016.5
20260506082811 74 216 4.3 9.6 0.00 0.00 0.00 42 1016.5
20260506082711 74 241 4.3 9.6 0.00 0.00 0.00 41 1016.4
20260506082616 74 230 4.3 9.6 0.00 0.00 0.00 41 1016.5
20260506082512 74 249 4.3 9.6 0.00 0.00 0.00 41 1016.5
20260506082413 74 288 5.2 7.8 0.00 0.00 0.00 41 1016.5
20260506082312 75 286 5.2 8.7 0.00 0.00 0.00 41 1016.5
20260506082212 75 212 5.2 8.7 0.00 0.00 0.00 40 1016.5
20260506082115 75 251 5.2 8.7 0.00 0.00 0.00 40 1016.5
20260506082013 75 225 4.3 8.7 0.00 0.00 0.00 40 1016.6
20260506081912 75 224 4.3 8.7 0.00 0.00 0.00 40 1016.5
20260506081809 74 215 4.3 8.7 0.00 0.00 0.00 39 1016.5
20260506081709 74 215 4.3 8.7 0.00 0.00 0.00 40 1016.5
20260506081613 74 216 4.3 8.7 0.00 0.00 0.00 40 1016.6
20260506081508 74 207 3.5 8.7 0.00 0.00 0.00 41 1016.5
20260506081408 74 208 3.5 8.7 0.00 0.00 0.00 41 1016.4
20260506081309 74 204 3.5 7.8 0.00 0.00 0.00 41 1016.5
20260506081207 74 241 3.5 7.8 0.00 0.00 0.00 42 1016.5
20260506081112 74 292 3.5 7.0 0.00 0.00 0.00 42 1016.5
20260506081009 74 251 3.5 7.0 0.00 0.00 0.00 42 1016.5
20260506080908 74 274 3.5 7.0 0.00 0.00 0.00 43 1016.4
20260506080806 74 220 3.5 7.0 0.00 0.00 0.00 44 1016.5
20260506080708 74 218 3.5 7.0 0.00 0.00 0.00 43 1016.5
20260506080610 74 249 4.3 7.0 0.00 0.00 0.00 42 1016.4
20260506080510 74 240 4.3 8.7 0.00 0.00 0.00 42 1016.4
20260506080423 74 225 3.5 8.7 0.00 0.00 0.00 43 1016.4
20260506080308 74 205 3.5 8.7 0.00 0.00 0.00 43 1016.4
20260506080208 74 240 3.5 8.7 0.00 0.00 0.00 42 1016.5
20260506080108 74 274 4.3 8.7 0.00 0.00 0.00 41 1016.4
20260506073503 74 237 2.6 6.1 0.00 0.00 0.00 42 1016.2
20260506073404 74 237 2.6 6.1 0.00 0.00 0.00 42 1016.3
20260506073303 73 227 2.6 6.1 0.00 0.00 0.00 41 1016.2
20260506073203 73 209 2.6 6.1 0.00 0.00 0.00 43 1016.3
20260506073104 74 219 1.7 6.1 0.00 0.00 0.00 43 1016.2
20260506073003 74 299 1.7 6.1 0.00 0.00 0.00 45 1016.2
20260506072901 74 223 1.7 5.2 0.00 0.00 0.00 45 1016.3
20260506072759 74 223 1.7 5.2 0.00 0.00 0.00 45 1016.3
20260506072657 73 216 1.7 5.2 0.00 0.00 0.00 45 1016.2
20260506072558 73 218 2.6 5.2 0.00 0.00 0.00 45 1016.2
20260506072456 73 218 2.6 5.2 0.00 0.00 0.00 46 1016.3
20260506072355 73 214 2.6 5.2 0.00 0.00 0.00 46 1016.1
20260506072255 73 220 1.7 5.2 0.00 0.00 0.00 46 1016.2
20260506072154 73 222 2.6 5.2 0.00 0.00 0.00 46 1016.1
20260506072052 72 222 2.6 5.2 0.00 0.00 0.00 48 1016.1
20260506071948 72 222 1.7 5.2 0.00 0.00 0.00 47 1016.1
20260506071848 72 205 1.7 4.3 0.00 0.00 0.00 47 1016.1
20260506071744 72 205 1.7 4.3 0.00 0.00 0.00 46 1016.1
20260506071643 72 205 2.6 4.3 0.00 0.00 0.00 47 1016.1
20260506071547 72 221 2.6 4.3 0.00 0.00 0.00 48 1016.1
20260506071443 71 224 2.6 4.3 0.00 0.00 0.00 50 1016.1
20260506071341 71 222 1.7 6.1 0.00 0.00 0.00 50 1016.1
20260506071241 71 243 2.6 6.1 0.00 0.00 0.00 49 1016.1
20260506071139 71 243 2.6 6.1 0.00 0.00 0.00 48 1016.1
20260506071045 71 269 1.7 6.1 0.00 0.00 0.00 49 1016.1
20260506070938 71 253 2.6 6.1 0.00 0.00 0.00 51 1016.1
20260506070836 71 257 2.6 6.1 0.00 0.00 0.00 51 1016.1
20260506070737 71 259 2.6 6.1 0.00 0.00 0.00 51 1016.1
20260506070637 71 243 2.6 6.1 0.00 0.00 0.00 52 1016.1
20260506070541 71 257 2.6 6.1 0.00 0.00 0.00 51 1016.1
20260506070438 72 251 2.6 6.1 0.00 0.00 0.00 51 1016.1
20260506070337 72 247 2.6 5.2 0.00 0.00 0.00 50 1016.1
20260506070239 72 237 2.6 5.2 0.00 0.00 0.00 50 1016.1
20260506070137 72 221 3.5 5.2 0.00 0.00 0.00 50 1016.0
20260506062431 72 205 0.9 2.6 0.00 0.00 0.00 38 1016.1
20260506062330 72 205 0.9 2.6 0.00 0.00 0.00 37 1016.1
20260506062231 72 205 0.9 2.6 0.00 0.00 0.00 37 1016.0
20260506062132 73 205 0.9 2.6 0.00 0.00 0.00 37 1016.0
20260506062030 73 125 0.0 1.7 0.00 0.00 0.00 37 1016.1
20260506061934 73 56 0.0 1.7 0.00 0.00 0.00 37 1016.0
20260506061831 73 74 0.0 0.9 0.00 0.00 0.00 38 1016.1
20260506061734 73 74 0.0 0.9 0.00 0.00 0.00 38 1016.0
20260506061630 73 74 0.0 0.9 0.00 0.00 0.00 38 1016.0
20260506061530 73 74 0.0 0.9 0.00 0.00 0.00 38 1016.0
20260506061430 72 74 0.0 0.9 0.00 0.00 0.00 38 1016.0
20260506061332 72 74 0.0 0.9 0.00 0.00 0.00 38 1015.9
20260506061232 72 74 0.0 0.9 0.00 0.00 0.00 39 1016.0
20260506061132 72 74 0.0 0.9 0.00 0.00 0.00 39 1015.9
20260506061031 72 74 0.0 0.9 0.00 0.00 0.00 39 1016.0
20260506060932 72 74 0.0 0.9 0.00 0.00 0.00 40 1015.9
20260506060833 71 74 0.0 0.9 0.00 0.00 0.00 40 1016.0
20260506060735 71 74 0.0 0.0 0.00 0.00 0.00 40 1016.0
20260506060631 71 74 0.0 0.0 0.00 0.00 0.00 43 1016.0
20260506060531 71 74 0.0 0.0 0.00 0.00 0.00 43 1016.0
20260506060431 71 74 0.0 0.0 0.00 0.00 0.00 43 1016.0
20260506060332 71 74 0.0 0.0 0.00 0.00 0.00 43 1016.0
20260506060233 71 74 0.0 0.0 0.00 0.00 0.00 43 1015.9
20260506060131 70 74 0.0 0.0 0.00 0.00 0.00 43 1015.9
20260506051406 62 74 0.0 1.7 0.00 0.00 0.00 55 1015.9
20260506051304 62 74 0.0 1.7 0.00 0.00 0.00 54 1015.9
20260506051203 62 74 0.9 1.7 0.00 0.00 0.00 54 1015.9
20260506051102 62 74 0.9 1.7 0.00 0.00 0.00 54 1015.9
20260506051003 62 74 0.9 1.7 0.00 0.00 0.00 54 1015.9
20260506050904 62 74 0.9 1.7 0.00 0.00 0.00 54 1015.9
20260506050803 62 74 0.9 2.6 0.00 0.00 0.00 54 1015.9
20260506050704 62 74 0.9 2.6 0.00 0.00 0.00 54 1015.9
20260506050604 62 74 0.9 2.6 0.00 0.00 0.00 54 1015.9
20260506050503 61 74 0.9 2.6 0.00 0.00 0.00 54 1015.9
20260506050403 62 74 0.9 2.6 0.00 0.00 0.00 54 1015.9
20260506050304 61 74 0.9 2.6 0.00 0.00 0.00 54 1015.9
20260506050202 61 74 1.7 3.5 0.00 0.00 0.00 54 1015.9
20260506050104 61 74 1.7 3.5 0.00 0.00 0.00 54 1015.8
20260506045106 61 71 4.3 7.0 0.00 0.00 0.00 54 1015.8
20260506045004 61 65 4.3 7.0 0.00 0.00 0.00 54 1015.8
20260506044909 61 62 4.3 7.0 0.00 0.00 0.00 53 1015.8
20260506044804 61 67 4.3 7.0 0.00 0.00 0.00 53 1015.8
20260506044702 61 60 4.3 7.0 0.00 0.00 0.00 53 1015.9
20260506044603 61 58 4.3 7.0 0.00 0.00 0.00 53 1015.8
20260506044504 61 74 4.3 7.0 0.00 0.00 0.00 54 1015.9
20260506044405 61 74 4.3 7.0 0.00 0.00 0.00 54 1015.8
20260506044303 61 76 3.5 7.0 0.00 0.00 0.00 54 1015.9
20260506044206 60 80 3.5 7.0 0.00 0.00 0.00 54 1015.9
20260506044103 60 89 3.5 7.0 0.00 0.00 0.00 54 1015.9
20260506044003 60 75 3.5 7.0 0.00 0.00 0.00 54 1015.8
20260506043905 60 46 4.3 7.8 0.00 0.00 0.00 54 1015.8
20260506043803 60 58 4.3 7.8 0.00 0.00 0.00 54 1015.8
20260506043704 60 64 4.3 8.7 0.00 0.00 0.00 54 1015.8
20260506043603 60 62 5.2 8.7 0.00 0.00 0.00 54 1015.8
20260506043504 60 72 5.2 8.7 0.00 0.00 0.00 54 1015.8
20260506043405 60 75 6.1 8.7 0.00 0.00 0.00 54 1015.8
20260506043303 60 77 6.1 8.7 0.00 0.00 0.00 54 1015.7
20260506043203 60 74 7.0 8.7 0.00 0.00 0.00 54 1015.7
20260506043058 60 87 7.0 9.6 0.00 0.00 0.00 55 1015.7
20260506042957 60 68 7.0 9.6 0.00 0.00 0.00 55 1015.6
20260506042858 60 89 7.8 9.6 0.00 0.00 0.00 55 1015.7
20260506042757 60 82 7.8 9.6 0.00 0.00 0.00 55 1015.7
20260506042657 60 81 7.8 9.6 0.00 0.00 0.00 55 1015.7
20260506042552 60 83 7.8 9.6 0.00 0.00 0.00 55 1015.7
20260506042452 60 78 7.0 9.6 0.00 0.00 0.00 55 1015.7
20260506042350 60 69 7.0 9.6 0.00 0.00 0.00 55 1015.7
20260506042252 60 76 6.1 9.6 0.00 0.00 0.00 55 1015.7
20260506042152 60 79 5.2 9.6 0.00 0.00 0.00 55 1015.7
20260506042046 60 82 5.2 8.7 0.00 0.00 0.00 55 1015.7
20260506041949 60 79 4.3 8.7 0.00 0.00 0.00 55 1015.7
20260506041846 60 72 3.5 8.7 0.00 0.00 0.00 55 1015.7
20260506041746 60 73 3.5 8.7 0.00 0.00 0.00 55 1015.7
20260506041645 60 83 2.6 8.7 0.00 0.00 0.00 54 1015.7
20260506041540 60 65 1.7 6.1 0.00 0.00 0.00 53 1015.7
20260506041440 60 78 1.7 6.1 0.00 0.00 0.00 53 1015.7
20260506041340 60 78 1.7 4.3 0.00 0.00 0.00 53 1015.7
20260506041238 60 76 1.7 3.5 0.00 0.00 0.00 53 1015.7
20260506041139 60 73 0.9 3.5 0.00 0.00 0.00 53 1015.7
20260506041035 60 76 0.9 3.5 0.00 0.00 0.00 53 1015.7
20260506040933 60 76 0.9 3.5 0.00 0.00 0.00 53 1015.7
20260506040831 60 76 0.9 3.5 0.00 0.00 0.00 53 1015.6
20260506040733 60 76 0.9 3.5 0.00 0.00 0.00 53 1015.7
20260506040633 60 76 0.9 3.5 0.00 0.00 0.00 53 1015.7
20260506040531 60 78 0.9 2.6 0.00 0.00 0.00 53 1015.7
20260506040432 60 76 0.9 2.6 0.00 0.00 0.00 52 1015.7
20260506040331 60 76 0.9 2.6 0.00 0.00 0.00 52 1015.7
20260506040231 60 76 0.9 2.6 0.00 0.00 0.00 52 1015.6
20260506040131 60 76 0.9 3.5 0.00 0.00 0.00 52 1015.6
20260506040033 60 76 0.9 3.5 0.00 0.00 0.00 52 1015.6
20260506035931 60 76 1.7 3.5 0.00 0.00 0.00 52 1015.5
20260506035830 60 76 1.7 3.5 0.00 0.00 0.00 52 1015.6
20260506035737 60 76 1.7 3.5 0.00 0.00 0.00 52 1015.5
20260506035631 60 76 1.7 4.3 0.00 0.00 0.00 52 1015.5
20260506035532 60 76 1.7 4.3 0.00 0.00 0.00 52 1015.5
20260506035430 60 76 2.6 5.2 0.00 0.00 0.00 52 1015.5
20260506035330 60 76 2.6 6.1 0.00 0.00 0.00 52 1015.5
20260506035230 60 75 2.6 6.1 0.00 0.00 0.00 52 1015.5
20260506035130 60 74 3.5 6.1 0.00 0.00 0.00 52 1015.5
20260506035030 60 75 3.5 7.0 0.00 0.00 0.00 52 1015.5
20260506034932 60 79 3.5 7.0 0.00 0.00 0.00 52 1015.5
20260506034830 60 79 4.3 7.0 0.00 0.00 0.00 52 1015.5
20260506034736 60 85 4.3 7.0 0.00 0.00 0.00 51 1015.4
20260506034631 60 77 4.3 7.0 0.00 0.00 0.00 52 1015.4
20260506034531 60 86 4.3 7.0 0.00 0.00 0.00 51 1015.4
20260506034430 60 80 5.2 7.8 0.00 0.00 0.00 51 1015.4
20260506034331 60 81 5.2 7.8 0.00 0.00 0.00 51 1015.3
20260506034230 60 81 5.2 7.8 0.00 0.00 0.00 51 1015.4
20260506034131 60 81 5.2 7.8 0.00 0.00 0.00 51 1015.5
20260506034032 60 79 5.2 7.8 0.00 0.00 0.00 51 1015.4
20260506033930 60 55 6.1 8.7 0.00 0.00 0.00 51 1015.4
20260506033833 60 79 6.1 8.7 0.00 0.00 0.00 51 1015.4
20260506033733 60 72 6.1 8.7 0.00 0.00 0.00 51 1015.4
20260506033631 60 83 7.0 8.7 0.00 0.00 0.00 51 1015.4
20260506033530 60 76 7.0 8.7 0.00 0.00 0.00 51 1015.4
20260506033431 60 85 7.0 8.7 0.00 0.00 0.00 51 1015.4
20260506033330 60 82 7.0 8.7 0.00 0.00 0.00 51 1015.4
20260506033237 60 91 7.0 8.7 0.00 0.00 0.00 51 1015.4
20260506033131 60 72 7.0 8.7 0.00 0.00 0.00 51 1015.4
20260506033030 60 76 7.0 8.7 0.00 0.00 0.00 51 1015.4
20260506032931 60 80 7.0 8.7 0.00 0.00 0.00 51 1015.3
20260506032832 60 74 7.0 8.7 0.00 0.00 0.00 51 1015.3
20260506032735 60 79 7.0 8.7 0.00 0.00 0.00 51 1015.3
20260506032631 60 81 7.0 8.7 0.00 0.00 0.00 51 1015.3
20260506032531 60 79 7.0 8.7 0.00 0.00 0.00 51 1015.3
20260506032431 60 76 7.0 8.7 0.00 0.00 0.00 51 1015.2
20260506032332 60 81 6.1 8.7 0.00 0.00 0.00 51 1015.2
20260506032231 60 79 6.1 8.7 0.00 0.00 0.00 51 1015.2
20260506032132 60 77 6.1 7.8 0.00 0.00 0.00 51 1015.2
20260506032031 60 83 6.1 7.8 0.00 0.00 0.00 51 1015.2
20260506031931 60 67 6.1 7.8 0.00 0.00 0.00 51 1015.1
20260506031831 60 81 6.1 7.8 0.00 0.00 0.00 51 1015.2
20260506031732 60 79 7.0 7.8 0.00 0.00 0.00 51 1015.1
20260506031631 60 80 7.0 7.8 0.00 0.00 0.00 51 1015.2
20260506031533 60 81 7.0 7.8 0.00 0.00 0.00 51 1015.2
20260506031431 60 83 7.0 7.8 0.00 0.00 0.00 51 1015.1
20260506031330 60 79 7.0 7.8 0.00 0.00 0.00 51 1015.2
20260506031232 60 78 7.0 7.8 0.00 0.00 0.00 51 1015.1
20260506031131 60 79 7.0 7.8 0.00 0.00 0.00 51 1015.2
20260506031030 60 79 7.0 7.8 0.00 0.00 0.00 51 1015.3
20260506030931 60 76 7.0 7.8 0.00 0.00 0.00 52 1015.2
20260506030831 60 80 7.0 7.8 0.00 0.00 0.00 52 1015.2
20260506030733 60 78 7.0 7.8 0.00 0.00 0.00 52 1015.2
20260506030632 60 68 6.1 7.8 0.00 0.00 0.00 52 1015.3
20260506030530 60 80 6.1 7.8 0.00 0.00 0.00 52 1015.2
20260506030433 60 83 6.1 7.8 0.00 0.00 0.00 52 1015.3
20260506030331 60 82 5.2 7.8 0.00 0.00 0.00 52 1015.2
20260506030230 60 83 5.2 7.8 0.00 0.00 0.00 52 1015.2
20260506030131 60 76 5.2 7.8 0.00 0.00 0.00 52 1015.2
20260506030030 60 84 4.3 7.8 0.00 0.00 0.00 52 1015.2
20260506025931 60 71 4.3 7.8 0.00 0.00 0.00 52 1015.2
20260506025832 59 79 4.3 7.8 0.00 0.00 0.00 52 1015.1
20260506025733 59 77 4.3 7.8 0.00 0.00 0.00 53 1015.2
20260506025630 59 76 4.3 8.7 0.00 0.00 0.00 53 1015.1
20260506025533 59 72 5.2 8.7 0.00 0.00 0.00 53 1015.2
20260506025431 59 66 5.2 8.7 0.00 0.00 0.00 53 1015.3
20260506025330 59 66 6.1 8.7 0.00 0.00 0.00 53 1015.3
20260506025231 59 84 6.1 8.7 0.00 0.00 0.00 53 1015.2
20260506025130 59 76 6.1 8.7 0.00 0.00 0.00 53 1015.3
20260506025031 59 81 6.1 8.7 0.00 0.00 0.00 53 1015.2
20260506024931 59 59 6.1 8.7 0.00 0.00 0.00 53 1015.2
20260506024830 59 81 5.2 8.7 0.00 0.00 0.00 53 1015.2
20260506024733 59 74 5.2 8.7 0.00 0.00 0.00 53 1015.1
20260506024632 59 78 5.2 8.7 0.00 0.00 0.00 53 1015.2
20260506024530 59 74 4.3 8.7 0.00 0.00 0.00 53 1015.2
20260506024431 59 75 4.3 7.8 0.00 0.00 0.00 53 1015.2
20260506024331 59 80 3.5 7.0 0.00 0.00 0.00 53 1015.1
20260506024231 59 75 3.5 7.0 0.00 0.00 0.00 53 1015.1
20260506024137 58 82 3.5 7.0 0.00 0.00 0.00 54 1015.2
20260506024031 58 76 2.6 7.0 0.00 0.00 0.00 54 1015.2
20260506023932 58 70 2.6 7.0 0.00 0.00 0.00 54 1015.2
20260506023831 58 79 2.6 7.0 0.00 0.00 0.00 54 1015.2
20260506023736 58 79 2.6 7.0 0.00 0.00 0.00 54 1015.2
20260506023634 58 74 2.6 7.0 0.00 0.00 0.00 54 1015.3
20260506023530 58 73 2.6 7.0 0.00 0.00 0.00 54 1015.3
20260506023430 59 79 2.6 4.3 0.00 0.00 0.00 54 1015.3
20260506023331 59 79 2.6 4.3 0.00 0.00 0.00 54 1015.3
20260506023230 59 79 2.6 4.3 0.00 0.00 0.00 54 1015.3
20260506023130 59 79 2.6 4.3 0.00 0.00 0.00 53 1015.3
20260506023031 59 79 2.6 4.3 0.00 0.00 0.00 53 1015.3
20260506022932 59 75 2.6 4.3 0.00 0.00 0.00 53 1015.3
20260506022832 59 76 2.6 4.3 0.00 0.00 0.00 53 1015.3
20260506022733 59 74 1.7 3.5 0.00 0.00 0.00 53 1015.4
20260506022631 59 72 1.7 3.5 0.00 0.00 0.00 53 1015.3
20260506022532 59 75 1.7 3.5 0.00 0.00 0.00 53 1015.3
20260506022431 59 73 1.7 3.5 0.00 0.00 0.00 53 1015.3
20260506022331 59 73 1.7 2.6 0.00 0.00 0.00 53 1015.3
20260506022232 59 73 1.7 2.6 0.00 0.00 0.00 53 1015.3
20260506022131 59 77 1.7 2.6 0.00 0.00 0.00 53 1015.3
20260506022031 59 78 1.7 2.6 0.00 0.00 0.00 53 1015.3
20260506021931 59 78 1.7 2.6 0.00 0.00 0.00 53 1015.3
20260506021833 59 79 0.9 2.6 0.00 0.00 0.00 53 1015.3
20260506021735 59 82 1.7 2.6 0.00 0.00 0.00 53 1015.4
20260506021630 59 82 1.7 2.6 0.00 0.00 0.00 53 1015.3
20260506021532 59 82 1.7 2.6 0.00 0.00 0.00 52 1015.3
20260506021431 60 82 1.7 2.6 0.00 0.00 0.00 52 1015.3
20260506021330 60 82 1.7 2.6 0.00 0.00 0.00 52 1015.3
20260506021232 60 85 1.7 3.5 0.00 0.00 0.00 52 1015.3
20260506021130 60 85 1.7 4.3 0.00 0.00 0.00 52 1015.2
20260506021031 60 85 1.7 5.2 0.00 0.00 0.00 52 1015.3
20260506020930 60 74 2.6 6.1 0.00 0.00 0.00 52 1015.2
20260506020830 60 74 2.6 6.1 0.00 0.00 0.00 52 1015.2
20260506020736 60 74 2.6 7.0 0.00 0.00 0.00 51 1015.3
20260506020631 60 74 3.5 7.0 0.00 0.00 0.00 51 1015.2
20260506020530 60 74 3.5 7.0 0.00 0.00 0.00 51 1015.2
20260506020430 60 74 4.3 7.0 0.00 0.00 0.00 51 1015.2
20260506020331 60 72 4.3 7.0 0.00 0.00 0.00 51 1015.2
20260506020230 60 79 4.3 7.0 0.00 0.00 0.00 51 1015.2
20260506020132 60 83 4.3 7.0 0.00 0.00 0.00 52 1015.2
20260506020031 60 84 4.3 7.0 0.00 0.00 0.00 51 1015.2
20260506015930 60 81 3.5 7.0 0.00 0.00 0.00 52 1015.1
20260506015830 60 66 3.5 7.0 0.00 0.00 0.00 52 1015.1
20260506015734 59 77 3.5 7.0 0.00 0.00 0.00 52 1015.1
20260506015630 59 79 3.5 7.0 0.00 0.00 0.00 52 1015.1
20260506015530 59 79 2.6 6.1 0.00 0.00 0.00 52 1015.1
20260506015430 59 73 2.6 6.1 0.00 0.00 0.00 52 1015.2
20260506015331 59 71 2.6 6.1 0.00 0.00 0.00 53 1015.1
20260506015231 59 81 2.6 4.3 0.00 0.00 0.00 53 1015.2
20260506015132 59 70 1.7 4.3 0.00 0.00 0.00 53 1015.2
20260506015036 59 72 2.6 4.3 0.00 0.00 0.00 53 1015.1
20260506014932 59 72 2.6 4.3 0.00 0.00 0.00 53 1015.2
20260506014830 59 74 2.6 4.3 0.00 0.00 0.00 53 1015.1
20260506014732 59 70 2.6 3.5 0.00 0.00 0.00 53 1015.2
20260506014632 59 76 2.6 3.5 0.00 0.00 0.00 53 1015.2
20260506014533 59 72 2.6 3.5 0.00 0.00 0.00 53 1015.2
20260506014432 59 70 2.6 3.5 0.00 0.00 0.00 52 1015.2
20260506014330 59 65 2.6 3.5 0.00 0.00 0.00 52 1015.2
20260506014230 59 75 2.6 3.5 0.00 0.00 0.00 52 1015.2
20260506014132 60 76 2.6 3.5 0.00 0.00 0.00 52 1015.2
20260506014031 60 62 2.6 3.5 0.00 0.00 0.00 52 1015.2
20260506013933 60 74 1.7 3.5 0.00 0.00 0.00 52 1015.2
20260506013830 60 77 1.7 3.5 0.00 0.00 0.00 52 1015.2
20260506013734 60 79 1.7 3.5 0.00 0.00 0.00 52 1015.2
20260506013631 60 76 1.7 3.5 0.00 0.00 0.00 52 1015.2
20260506013531 60 77 2.6 3.5 0.00 0.00 0.00 52 1015.2
20260506013430 60 79 2.6 3.5 0.00 0.00 0.00 52 1015.2
20260506013332 60 79 2.6 4.3 0.00 0.00 0.00 52 1015.2
20260506013230 60 72 2.6 6.1 0.00 0.00 0.00 51 1015.1
20260506013131 60 72 2.6 6.1 0.00 0.00 0.00 52 1015.2
20260506013030 60 72 3.5 7.0 0.00 0.00 0.00 51 1015.2
20260506012933 60 72 3.5 7.0 0.00 0.00 0.00 51 1015.2
20260506012831 60 70 3.5 7.0 0.00 0.00 0.00 51 1015.2
20260506012734 60 69 3.5 7.0 0.00 0.00 0.00 51 1015.2
20260506012630 60 73 3.5 7.0 0.00 0.00 0.00 51 1015.2
20260506012530 60 76 3.5 7.0 0.00 0.00 0.00 51 1015.2
20260506012430 60 76 3.5 7.0 0.00 0.00 0.00 51 1015.1
20260506012330 60 70 3.5 7.0 0.00 0.00 0.00 51 1015.2
20260506012231 60 78 3.5 7.0 0.00 0.00 0.00 51 1015.2
20260506012131 60 76 2.6 7.0 0.00 0.00 0.00 51 1015.2
20260506012031 60 74 2.6 7.0 0.00 0.00 0.00 52 1015.2
20260506011933 60 61 2.6 5.2 0.00 0.00 0.00 52 1015.1
20260506011831 60 73 2.6 4.3 0.00 0.00 0.00 52 1015.1
20260506011733 60 79 2.6 4.3 0.00 0.00 0.00 52 1015.2
20260506011632 60 78 2.6 4.3 0.00 0.00 0.00 52 1015.1
20260506011529 60 69 2.6 6.1 0.00 0.00 0.00 52 1015.1
20260506011428 60 78 2.6 6.1 0.00 0.00 0.00 52 1015.1
20260506011330 60 76 3.5 6.1 0.00 0.00 0.00 52 1015.1
20260506011230 60 76 3.5 6.1 0.00 0.00 0.00 52 1015.1
20260506011128 60 76 3.5 6.1 0.00 0.00 0.00 52 1015.0
20260506011020 60 81 3.5 6.1 0.00 0.00 0.00 52 1015.1
20260506010921 60 78 3.5 6.1 0.00 0.00 0.00 52 1015.1
20260506010820 60 79 3.5 6.1 0.00 0.00 0.00 52 1015.1
20260506010722 60 75 3.5 6.1 0.00 0.00 0.00 52 1015.1
20260506010621 60 81 2.6 6.1 0.00 0.00 0.00 52 1015.1
20260506010514 60 75 2.6 4.3 0.00 0.00 0.00 52 1015.1
20260506010416 60 79 2.6 4.3 0.00 0.00 0.00 52 1015.1
20260506010315 60 66 2.6 4.3 0.00 0.00 0.00 52 1015.1
20260506010216 60 77 2.6 4.3 0.00 0.00 0.00 52 1015.1
20260506010116 60 73 1.7 4.3 0.00 0.00 0.00 52 1015.1
20260506010011 60 76 1.7 4.3 0.00 0.00 0.00 52 1015.1
20260506005912 60 74 1.7 4.3 0.00 0.00 0.00 52 1015.1
20260506005810 60 74 1.7 3.5 0.00 0.00 0.00 52 1015.1
20260506005710 60 72 1.7 3.5 0.00 0.00 0.00 52 1015.1
20260506005611 60 74 1.7 3.5 0.00 0.00 0.00 52 1015.2
20260506005510 60 74 1.7 3.5 0.00 0.00 0.00 51 1015.1
20260506005412 60 74 1.7 3.5 0.00 0.00 0.00 51 1015.1
20260506005309 60 74 1.7 3.5 0.00 0.00 0.00 51 1015.0
20260506005210 60 75 2.6 4.3 0.00 0.00 0.00 51 1015.0
20260506005110 60 75 2.6 6.1 0.00 0.00 0.00 51 1015.0
20260506005010 60 68 2.6 6.1 0.00 0.00 0.00 51 1015.0
20260506004908 60 68 2.6 6.1 0.00 0.00 0.00 51 1015.0
20260506004809 60 68 2.6 7.0 0.00 0.00 0.00 51 1015.0
20260506004708 60 66 3.5 7.0 0.00 0.00 0.00 51 1015.0
20260506004608 60 66 3.5 7.0 0.00 0.00 0.00 51 1015.0
20260506004507 60 65 3.5 7.0 0.00 0.00 0.00 51 1015.0
20260506004404 60 59 3.5 7.0 0.00 0.00 0.00 51 1015.0
20260506004305 60 59 3.5 7.0 0.00 0.00 0.00 51 1015.0
20260506004207 60 75 3.5 7.0 0.00 0.00 0.00 51 1015.0
20260506004104 60 76 3.5 7.0 0.00 0.00 0.00 51 1015.0
20260506004003 60 79 3.5 7.0 0.00 0.00 0.00 51 1015.0
20260506003905 60 77 2.6 7.0 0.00 0.00 0.00 51 1015.0
20260506003803 60 62 2.6 6.1 0.00 0.00 0.00 51 1015.0
20260506003703 60 68 1.7 6.1 0.00 0.00 0.00 51 1015.0
20260506003603 60 94 1.7 6.1 0.00 0.00 0.00 51 1015.0
20260506003504 61 83 0.9 6.1 0.00 0.00 0.00 51 1015.0
20260506003404 61 76 0.9 3.5 0.00 0.00 0.00 51 1015.0
20260506003302 61 74 0.9 3.5 0.00 0.00 0.00 51 1015.0
20260506003205 61 75 0.9 3.5 0.00 0.00 0.00 51 1015.0
20260506003103 61 75 0.0 3.5 0.00 0.00 0.00 51 1015.0
20260506003005 61 74 0.0 1.7 0.00 0.00 0.00 51 1015.0
20260506002904 61 74 0.0 1.7 0.00 0.00 0.00 51 1015.0
20260506002802 61 74 0.9 2.6 0.00 0.00 0.00 51 1015.1
20260506002703 61 74 0.9 2.6 0.00 0.00 0.00 51 1015.0
20260506002602 61 74 0.9 2.6 0.00 0.00 0.00 51 1015.0
20260506002503 61 74 0.9 2.6 0.00 0.00 0.00 51 1015.0
20260506002405 61 74 0.9 2.6 0.00 0.00 0.00 51 1015.1
20260506002306 61 74 1.7 3.5 0.00 0.00 0.00 51 1015.0
20260506002203 61 74 1.7 4.3 0.00 0.00 0.00 51 1015.0
20260506002102 61 74 1.7 5.2 0.00 0.00 0.00 51 1015.0
20260506002003 61 74 2.6 5.2 0.00 0.00 0.00 51 1015.0
20260506001903 61 74 2.6 5.2 0.00 0.00 0.00 51 1014.9
20260506001803 61 74 3.5 5.2 0.00 0.00 0.00 51 1014.9
20260506001703 62 72 3.5 6.1 0.00 0.00 0.00 50 1014.9
20260506001603 62 75 3.5 6.1 0.00 0.00 0.00 50 1015.0
20260506001503 62 76 3.5 6.1 0.00 0.00 0.00 50 1014.9
20260506001406 62 68 4.3 6.1 0.00 0.00 0.00 50 1014.9
20260506001303 62 47 4.3 6.1 0.00 0.00 0.00 50 1014.9
20260506001203 62 78 4.3 6.1 0.00 0.00 0.00 50 1014.9
20260506001104 62 76 4.3 6.1 0.00 0.00 0.00 50 1014.9
20260506001004 62 74 4.3 6.1 0.00 0.00 0.00 50 1014.9
20260506000903 62 76 4.3 6.1 0.00 0.00 0.00 50 1015.0
20260506000802 62 87 4.3 6.1 0.00 0.00 0.00 50 1015.0
20260506000702 62 82 4.3 7.0 0.00 0.00 0.00 50 1014.9